GFSGBSN_prec_precacc12_126.txt.gz
Total_Precipitation_Accumulation
0.21 0.11 0.06 0.03 0.01 0.00 0.00 0.00 0.00 0.00 0.00 0.00 0.00 0.00 0.00 0.00 0.00 0.00 0.00 0.00 0.00 0.00 0.00 0.00 0.00 0.00 0.00 0.00 0.00 0.00 0.00 0.00 0.00 0.00 0.00 0.00 0.00 0.00 0.00 0.00 0.00 0.00 0.00 0.00 0.00 0.00 0.00
0.54 0.49 0.36 0.21 0.12 0.07 0.04 0.02 0.01 0.00 0.00 0.00 0.00 0.00 0.00 0.00 0.00 0.00 0.00 0.00 0.00 0.00 0.00 0.00 0.00 0.00 0.00 0.00 0.00 0.00 0.00 0.00 0.00 0.00 0.00 0.00 0.00 0.00 0.00 0.00 0.00 0.00 0.00 0.00 0.00 0.00 0.00
0.43 0.41 0.37 0.34 0.26 0.18 0.12 0.09 0.05 0.02 0.00 0.00 0.00 0.00 0.00 0.00 0.00 0.00 0.00 0.00 0.00 0.00 0.00 0.01 0.00 0.00 0.00 0.00 0.00 0.00 0.00 0.00 0.00 0.00 0.00 0.00 0.00 0.00 0.00 0.00 0.00 0.00 0.00 0.00 0.00 0.00 0.00
0.34 0.38 0.36 0.32 0.23 0.17 0.10 0.05 0.03 0.01 0.00 0.00 0.00 0.00 0.00 0.00 0.00 0.00 0.00 0.00 0.00 0.00 0.00 0.02 0.00 0.00 0.00 0.00 0.00 0.00 0.00 0.00 0.00 0.00 0.00 0.00 0.00 0.00 0.00 0.00 0.00 0.00 0.00 0.00 0.00 0.00 0.00
0.18 0.20 0.23 0.22 0.18 0.16 0.14 0.09 0.06 0.03 0.01 0.00 0.00 0.00 0.00 0.00 0.00 0.00 0.00 0.01 0.00 0.01 0.02 0.01 0.00 0.00 0.00 0.00 0.00 0.00 0.00 0.00 0.00 0.00 0.00 0.00 0.00 0.00 0.00 0.00 0.00 0.00 0.00 0.00 0.00 0.00 0.00
0.13 0.11 0.11 0.13 0.13 0.11 0.09 0.06 0.04 0.02 0.01 0.01 0.00 0.00 0.00 0.00 0.00 0.00 0.01 0.01 0.01 0.01 0.00 0.00 0.00 0.00 0.00 0.00 0.00 0.00 0.00 0.00 0.00 0.00 0.00 0.00 0.00 0.00 0.00 0.00 0.00 0.00 0.00 0.00 0.00 0.00 0.00
0.18 0.18 0.12 0.06 0.05 0.03 0.03 0.03 0.03 0.02 0.01 0.01 0.00 0.00 0.00 0.00 0.00 0.00 0.00 0.00 0.00 0.00 0.00 0.00 0.00 0.00 0.00 0.00 0.00 0.00 0.00 0.00 0.00 0.00 0.00 0.00 0.00 0.00 0.00 0.00 0.00 0.00 0.00 0.00 0.00 0.00 0.00
0.11 0.15 0.22 0.20 0.09 0.04 0.02 0.02 0.02 0.01 0.01 0.01 0.00 0.00 0.00 0.00 0.00 0.01 0.00 0.00 0.00 0.00 0.00 0.00 0.00 0.00 0.00 0.00 0.00 0.00 0.00 0.00 0.00 0.00 0.00 0.00 0.00 0.00 0.00 0.00 0.00 0.00 0.00 0.00 0.00 0.00 0.00
0.11 0.12 0.14 0.18 0.17 0.08 0.05 0.04 0.02 0.01 0.01 0.01 0.00 0.00 0.00 0.00 0.01 0.03 0.00 0.00 0.00 0.00 0.00 0.00 0.00 0.00 0.00 0.00 0.00 0.00 0.00 0.00 0.00 0.00 0.00 0.00 0.00 0.00 0.00 0.00 0.00 0.00 0.00 0.00 0.00 0.00 0.00
0.12 0.12 0.15 0.17 0.18 0.10 0.05 0.04 0.03 0.01 0.01 0.01 0.01 0.00 0.00 0.00 0.01 0.01 0.01 0.00 0.00 0.00 0.00 0.00 0.00 0.00 0.00 0.00 0.00 0.00 0.00 0.00 0.00 0.00 0.00 0.00 0.00 0.00 0.00 0.00 0.00 0.00 0.00 0.00 0.00 0.00 0.00
0.07 0.08 0.09 0.14 0.21 0.20 0.11 0.05 0.04 0.01 0.00 0.01 0.00 0.00 0.00 0.00 0.00 0.00 0.00 0.00 0.00 0.00 0.00 0.00 0.00 0.00 0.00 0.00 0.00 0.00 0.00 0.00 0.00 0.00 0.00 0.00 0.00 0.00 0.00 0.00 0.00 0.00 0.00 0.00 0.00 0.00 0.00
0.15 0.11 0.08 0.11 0.15 0.15 0.13 0.09 0.07 0.04 0.01 0.00 0.00 0.00 0.00 0.01 0.02 0.00 0.00 0.00 0.00 0.00 0.00 0.00 0.00 0.00 0.00 0.00 0.00 0.00 0.00 0.00 0.00 0.00 0.00 0.00 0.00 0.00 0.00 0.00 0.00 0.00 0.00 0.00 0.00 0.00 0.00
0.27 0.21 0.16 0.11 0.12 0.15 0.20 0.14 0.08 0.06 0.05 0.01 0.00 0.00 0.00 0.00 0.00 0.00 0.00 0.03 0.00 0.00 0.00 0.00 0.00 0.00 0.00 0.00 0.00 0.00 0.00 0.00 0.00 0.00 0.00 0.00 0.00 0.00 0.00 0.00 0.00 0.00 0.00 0.03 0.01 0.00 0.00
0.16 0.29 0.30 0.20 0.15 0.12 0.17 0.24 0.19 0.10 0.04 0.04 0.01 0.01 0.00 0.00 0.00 0.01 0.07 0.08 0.01 0.00 0.00 0.00 0.00 0.00 0.00 0.00 0.00 0.00 0.00 0.00 0.00 0.00 0.00 0.00 0.00 0.00 0.00 0.00 0.00 0.00 0.00 0.02 0.01 0.00 0.00
0.13 0.15 0.25 0.37 0.31 0.18 0.16 0.24 0.27 0.31 0.22 0.09 0.05 0.02 0.01 0.01 0.01 0.06 0.17 0.12 0.00 0.00 0.00 0.00 0.00 0.00 0.00 0.00 0.00 0.00 0.00 0.00 0.00 0.00 0.00 0.00 0.00 0.00 0.00 0.00 0.00 0.00 0.00 0.01 0.05 0.04 0.02
0.13 0.13 0.16 0.23 0.43 0.47 0.31 0.15 0.21 0.35 0.41 0.34 0.18 0.03 0.01 0.01 0.04 0.16 0.33 0.07 0.00 0.00 0.00 0.00 0.00 0.00 0.00 0.00 0.00 0.00 0.00 0.00 0.00 0.00 0.00 0.00 0.00 0.00 0.00 0.00 0.00 0.00 0.00 0.02 0.08 0.05 0.01
0.16 0.16 0.12 0.12 0.17 0.40 0.58 0.47 0.21 0.20 0.47 0.39 0.23 0.11 0.01 0.03 0.20 0.37 0.34 0.05 0.00 0.00 0.00 0.00 0.00 0.00 0.00 0.00 0.00 0.00 0.00 0.00 0.00 0.00 0.00 0.00 0.01 0.00 0.00 0.00 0.00 0.00 0.01 0.01 0.04 0.02 0.01
0.25 0.24 0.20 0.13 0.11 0.14 0.35 0.68 0.56 0.34 0.41 0.47 0.25 0.10 0.02 0.10 0.34 0.30 0.16 0.02 0.00 0.00 0.00 0.00 0.00 0.00 0.00 0.00 0.00 0.00 0.00 0.00 0.00 0.00 0.01 0.03 0.07 0.02 0.00 0.00 0.01 0.02 0.02 0.05 0.10 0.08 0.06
0.16 0.25 0.24 0.22 0.11 0.09 0.15 0.31 0.77 0.65 0.61 0.50 0.28 0.11 0.07 0.30 0.14 0.17 0.06 0.01 0.00 0.00 0.00 0.00 0.00 0.00 0.00 0.00 0.01 0.00 0.00 0.00 0.00 0.01 0.03 0.12 0.14 0.11 0.10 0.09 0.04 0.03 0.01 0.04 0.09 0.15 0.12
0.13 0.14 0.21 0.24 0.27 0.12 0.10 0.17 0.31 0.79 0.83 0.48 0.37 0.30 0.34 0.36 0.10 0.02 0.04 0.05 0.04 0.00 0.01 0.02 0.02 0.02 0.01 0.00 0.01 0.00 0.00 0.00 0.00 0.01 0.04 0.15 0.08 0.06 0.06 0.06 0.04 0.05 0.04 0.09 0.17 0.23 0.08
0.13 0.19 0.20 0.17 0.27 0.29 0.18 0.12 0.21 0.38 0.89 0.65 0.64 0.39 0.13 0.31 0.15 0.02 0.02 0.02 0.01 0.02 0.02 0.04 0.06 0.02 0.02 0.02 0.01 0.00 0.00 0.00 0.00 0.01 0.02 0.09 0.05 0.03 0.02 0.06 0.07 0.05 0.04 0.06 0.14 0.12 0.13
0.23 0.12 0.22 0.28 0.18 0.29 0.33 0.30 0.17 0.30 0.53 0.68 0.66 0.24 0.07 0.02 0.01 0.04 0.08 0.03 0.00 0.00 0.03 0.04 0.03 0.02 0.08 0.04 0.01 0.00 0.02 0.04 0.02 0.02 0.03 0.05 0.04 0.02 0.01 0.01 0.03 0.03 0.01 0.01 0.04 0.05 0.08
0.25 0.27 0.19 0.17 0.25 0.19 0.32 0.42 0.35 0.28 0.54 0.98 0.59 0.15 0.09 0.07 0.02 0.09 0.11 0.01 0.00 0.02 0.01 0.01 0.02 0.08 0.12 0.09 0.08 0.06 0.07 0.05 0.05 0.04 0.06 0.05 0.04 0.06 0.06 0.02 0.19 0.22 0.00 0.00 0.00 0.00 0.00
0.33 0.26 0.33 0.26 0.11 0.18 0.21 0.35 0.45 0.37 0.37 0.35 0.22 0.20 0.16 0.12 0.08 0.02 0.00 0.00 0.00 0.01 0.01 0.02 0.07 0.05 0.03 0.04 0.10 0.16 0.11 0.04 0.01 0.01 0.02 0.04 0.08 0.18 0.14 0.13 0.28 0.05 0.00 0.00 0.00 0.00 0.00
0.27 0.42 0.25 0.38 0.29 0.14 0.18 0.26 0.34 0.28 0.36 0.19 0.12 0.22 0.29 0.24 0.06 0.05 0.01 0.01 0.01 0.01 0.01 0.02 0.06 0.08 0.10 0.14 0.16 0.18 0.19 0.22 0.15 0.07 0.04 0.02 0.05 0.13 0.12 0.11 0.05 0.00 0.00 0.00 0.00 0.00 0.00
0.13 0.31 0.49 0.18 0.42 0.27 0.19 0.23 0.19 0.19 0.25 0.16 0.10 0.12 0.22 0.19 0.14 0.04 0.03 0.02 0.04 0.02 0.02 0.01 0.03 0.08 0.14 0.16 0.22 0.17 0.12 0.14 0.11 0.09 0.06 0.11 0.13 0.17 0.14 0.06 0.02 0.00 0.00 0.00 0.00 0.00 0.00
0.08 0.15 0.52 0.29 0.23 0.41 0.25 0.15 0.11 0.13 0.16 0.08 0.03 0.07 0.22 0.27 0.03 0.04 0.06 0.04 0.02 0.01 0.02 0.01 0.02 0.16 0.26 0.27 0.25 0.11 0.03 0.02 0.07 0.09 0.11 0.14 0.20 0.25 0.21 0.14 0.05 0.00 0.00 0.00 0.00 0.00 0.00
0.10 0.06 0.13 0.23 0.17 0.30 0.20 0.11 0.07 0.09 0.14 0.12 0.04 0.04 0.13 0.20 0.03 0.01 0.02 0.03 0.05 0.04 0.02 0.03 0.09 0.19 0.31 0.37 0.25 0.18 0.08 0.02 0.01 0.00 0.01 0.05 0.10 0.11 0.15 0.18 0.08 0.00 0.00 0.00 0.00 0.00 0.00
0.22 0.14 0.10 0.07 0.11 0.12 0.12 0.06 0.06 0.10 0.15 0.18 0.10 0.06 0.12 0.14 0.06 0.01 0.02 0.02 0.03 0.05 0.05 0.05 0.07 0.06 0.10 0.11 0.15 0.15 0.15 0.07 0.02 0.01 0.00 0.01 0.01 0.01 0.02 0.02 0.00 0.00 0.00 0.00 0.00 0.00 0.00

GFSGBSN_prec_precacc12_129.txt.gz
Total_Precipitation_Accumulation
0.34 0.27 0.15 0.06 0.02 0.01 0.00 0.00 0.01 0.01 0.00 0.00 0.00 0.00 0.00 0.00 0.00 0.00 0.00 0.00 0.00 0.00 0.00 0.00 0.00 0.00 0.00 0.00 0.00 0.00 0.00 0.00 0.00 0.00 0.00 0.00 0.00 0.00 0.00 0.00 0.00 0.00 0.00 0.00 0.00 0.00 0.00
0.67 0.64 0.56 0.40 0.24 0.11 0.05 0.03 0.02 0.00 0.01 0.01 0.00 0.00 0.00 0.00 0.00 0.00 0.00 0.00 0.00 0.00 0.00 0.00 0.00 0.00 0.00 0.00 0.00 0.00 0.00 0.00 0.00 0.00 0.00 0.00 0.00 0.00 0.00 0.00 0.00 0.00 0.00 0.00 0.00 0.00 0.00
0.55 0.51 0.49 0.55 0.62 0.63 0.53 0.25 0.12 0.06 0.02 0.01 0.00 0.00 0.00 0.00 0.00 0.00 0.00 0.00 0.00 0.00 0.00 0.00 0.00 0.00 0.00 0.00 0.00 0.00 0.00 0.00 0.00 0.00 0.00 0.00 0.00 0.00 0.00 0.00 0.00 0.00 0.00 0.00 0.00 0.00 0.00
0.38 0.44 0.43 0.41 0.37 0.36 0.38 0.34 0.24 0.13 0.06 0.03 0.01 0.00 0.00 0.00 0.00 0.00 0.00 0.00 0.00 0.00 0.00 0.01 0.00 0.00 0.00 0.00 0.00 0.00 0.00 0.00 0.00 0.00 0.00 0.00 0.00 0.00 0.00 0.00 0.00 0.00 0.00 0.00 0.00 0.00 0.00
0.24 0.27 0.29 0.28 0.26 0.24 0.23 0.21 0.18 0.13 0.08 0.04 0.02 0.01 0.00 0.00 0.00 0.00 0.00 0.00 0.00 0.01 0.01 0.00 0.00 0.00 0.00 0.00 0.00 0.00 0.00 0.00 0.00 0.00 0.00 0.00 0.00 0.00 0.00 0.00 0.00 0.00 0.00 0.00 0.00 0.00 0.00
0.18 0.19 0.22 0.23 0.21 0.19 0.16 0.13 0.09 0.05 0.04 0.02 0.01 0.01 0.00 0.00 0.00 0.00 0.00 0.00 0.01 0.00 0.00 0.00 0.00 0.00 0.00 0.00 0.00 0.00 0.00 0.00 0.00 0.00 0.00 0.00 0.00 0.00 0.00 0.00 0.00 0.00 0.00 0.00 0.00 0.00 0.00
0.22 0.23 0.21 0.20 0.15 0.08 0.09 0.09 0.08 0.06 0.03 0.02 0.01 0.00 0.00 0.00 0.00 0.00 0.00 0.00 0.00 0.00 0.00 0.00 0.00 0.00 0.00 0.00 0.00 0.00 0.00 0.00 0.00 0.00 0.00 0.00 0.00 0.00 0.00 0.00 0.00 0.00 0.00 0.00 0.00 0.00 0.00
0.11 0.17 0.27 0.34 0.34 0.20 0.06 0.04 0.03 0.02 0.02 0.01 0.00 0.00 0.00 0.00 0.00 0.00 0.00 0.00 0.00 0.00 0.00 0.00 0.00 0.00 0.00 0.00 0.00 0.00 0.00 0.00 0.00 0.00 0.00 0.00 0.00 0.00 0.00 0.00 0.00 0.00 0.00 0.00 0.00 0.00 0.00
0.09 0.11 0.14 0.20 0.29 0.34 0.22 0.11 0.05 0.02 0.01 0.01 0.01 0.00 0.00 0.00 0.00 0.02 0.00 0.00 0.00 0.00 0.00 0.00 0.00 0.00 0.00 0.00 0.00 0.00 0.00 0.00 0.00 0.00 0.00 0.00 0.00 0.00 0.00 0.00 0.00 0.00 0.00 0.00 0.00 0.00 0.00
0.09 0.10 0.13 0.15 0.17 0.23 0.29 0.21 0.12 0.06 0.02 0.01 0.01 0.00 0.00 0.00 0.00 0.00 0.00 0.00 0.00 0.00 0.00 0.00 0.00 0.00 0.00 0.00 0.00 0.00 0.00 0.00 0.00 0.00 0.00 0.00 0.00 0.00 0.00 0.00 0.00 0.00 0.00 0.00 0.00 0.00 0.00
0.06 0.07 0.09 0.13 0.20 0.24 0.27 0.24 0.13 0.08 0.04 0.02 0.00 0.00 0.00 0.00 0.00 0.00 0.00 0.00 0.00 0.00 0.01 0.00 0.00 0.00 0.00 0.00 0.00 0.00 0.00 0.00 0.00 0.00 0.00 0.00 0.00 0.00 0.00 0.00 0.00 0.00 0.00 0.00 0.00 0.00 0.00
0.12 0.09 0.07 0.10 0.14 0.16 0.20 0.21 0.20 0.15 0.07 0.02 0.00 0.00 0.00 0.01 0.02 0.00 0.00 0.00 0.00 0.01 0.01 0.00 0.00 0.00 0.00 0.00 0.00 0.00 0.00 0.00 0.00 0.00 0.00 0.00 0.00 0.00 0.00 0.00 0.00 0.00 0.00 0.00 0.00 0.00 0.00
0.25 0.18 0.13 0.10 0.11 0.15 0.22 0.23 0.19 0.17 0.16 0.07 0.01 0.00 0.00 0.00 0.00 0.01 0.02 0.04 0.02 0.01 0.00 0.00 0.00 0.00 0.00 0.00 0.00 0.00 0.00 0.00 0.00 0.00 0.00 0.00 0.00 0.00 0.00 0.00 0.00 0.00 0.00 0.02 0.01 0.00 0.00
0.13 0.27 0.28 0.18 0.14 0.13 0.18 0.31 0.34 0.25 0.20 0.12 0.04 0.01 0.00 0.00 0.00 0.01 0.11 0.10 0.03 0.01 0.00 0.00 0.00 0.00 0.00 0.00 0.00 0.00 0.00 0.00 0.00 0.00 0.00 0.00 0.00 0.00 0.00 0.00 0.00 0.00 0.00 0.02 0.00 0.00 0.00
0.07 0.11 0.22 0.36 0.29 0.17 0.16 0.27 0.39 0.56 0.49 0.24 0.10 0.05 0.01 0.01 0.00 0.07 0.19 0.17 0.02 0.00 0.00 0.00 0.00 0.00 0.00 0.00 0.00 0.00 0.00 0.00 0.00 0.00 0.00 0.00 0.00 0.00 0.00 0.00 0.00 0.00 0.00 0.01 0.05 0.04 0.02
0.09 0.09 0.13 0.20 0.41 0.46 0.30 0.16 0.26 0.48 0.78 0.82 0.51 0.15 0.04 0.01 0.02 0.13 0.33 0.10 0.00 0.00 0.00 0.00 0.00 0.00 0.00 0.00 0.00 0.00 0.00 0.00 0.00 0.00 0.00 0.00 0.00 0.00 0.00 0.00 0.00 0.00 0.00 0.02 0.07 0.05 0.01
0.13 0.12 0.09 0.10 0.16 0.38 0.56 0.47 0.23 0.28 0.64 0.93 0.98 0.73 0.23 0.06 0.14 0.27 0.32 0.05 0.00 0.00 0.00 0.00 0.00 0.00 0.00 0.00 0.00 0.00 0.00 0.00 0.00 0.00 0.00 0.00 0.00 0.00 0.00 0.00 0.00 0.00 0.01 0.01 0.04 0.02 0.01
0.22 0.20 0.17 0.11 0.10 0.13 0.34 0.66 0.57 0.38 0.57 1.04 1.08 0.66 0.24 0.20 0.28 0.26 0.16 0.01 0.00 0.00 0.00 0.00 0.00 0.00 0.00 0.00 0.00 0.00 0.00 0.00 0.00 0.00 0.00 0.00 0.03 0.01 0.00 0.00 0.01 0.02 0.02 0.05 0.11 0.09 0.06
0.14 0.23 0.22 0.21 0.10 0.08 0.14 0.30 0.76 0.69 0.74 1.18 1.05 0.53 0.27 0.39 0.24 0.14 0.04 0.00 0.00 0.00 0.00 0.00 0.00 0.00 0.00 0.00 0.00 0.00 0.00 0.00 0.00 0.01 0.02 0.09 0.11 0.09 0.06 0.06 0.03 0.01 0.01 0.04 0.10 0.17 0.13
0.11 0.13 0.20 0.24 0.25 0.11 0.09 0.15 0.29 0.78 0.93 1.10 1.01 0.74 0.68 0.57 0.18 0.02 0.02 0.02 0.01 0.00 0.02 0.01 0.02 0.00 0.00 0.00 0.00 0.00 0.00 0.00 0.00 0.01 0.02 0.10 0.06 0.06 0.05 0.05 0.07 0.08 0.05 0.11 0.20 0.29 0.13
0.11 0.18 0.19 0.17 0.26 0.28 0.18 0.13 0.20 0.36 1.03 1.13 1.09 0.69 0.42 0.53 0.23 0.03 0.01 0.01 0.00 0.01 0.02 0.04 0.05 0.02 0.01 0.02 0.01 0.00 0.00 0.01 0.00 0.01 0.02 0.08 0.05 0.03 0.00 0.01 0.04 0.04 0.04 0.06 0.16 0.16 0.20
0.19 0.10 0.21 0.27 0.16 0.26 0.31 0.31 0.18 0.31 0.71 1.11 0.98 0.43 0.22 0.04 0.01 0.04 0.07 0.02 0.00 0.00 0.03 0.03 0.02 0.00 0.04 0.04 0.01 0.00 0.02 0.04 0.03 0.02 0.04 0.06 0.06 0.02 0.01 0.00 0.02 0.02 0.00 0.01 0.04 0.05 0.09
0.21 0.25 0.18 0.16 0.23 0.17 0.29 0.42 0.37 0.32 0.68 1.35 1.02 0.35 0.11 0.07 0.03 0.10 0.11 0.01 0.00 0.01 0.02 0.01 0.03 0.08 0.07 0.02 0.07 0.06 0.08 0.06 0.07 0.07 0.10 0.09 0.07 0.07 0.05 0.00 0.07 0.12 0.00 0.00 0.00 0.00 0.00
0.31 0.24 0.31 0.24 0.10 0.17 0.20 0.35 0.47 0.43 0.56 0.55 0.38 0.33 0.27 0.15 0.07 0.03 0.00 0.00 0.00 0.01 0.04 0.03 0.02 0.06 0.03 0.05 0.05 0.12 0.14 0.06 0.03 0.03 0.04 0.10 0.11 0.21 0.16 0.12 0.26 0.04 0.00 0.00 0.00 0.00 0.00
0.25 0.41 0.24 0.36 0.27 0.13 0.18 0.28 0.35 0.50 0.60 0.31 0.19 0.26 0.31 0.24 0.05 0.04 0.01 0.00 0.02 0.03 0.03 0.04 0.03 0.04 0.08 0.14 0.12 0.13 0.16 0.22 0.14 0.07 0.04 0.02 0.07 0.16 0.14 0.10 0.05 0.00 0.00 0.00 0.00 0.00 0.00
0.14 0.32 0.50 0.19 0.42 0.25 0.19 0.26 0.23 0.45 0.80 0.29 0.22 0.16 0.22 0.19 0.13 0.05 0.03 0.02 0.03 0.04 0.05 0.02 0.02 0.03 0.07 0.15 0.22 0.17 0.11 0.14 0.10 0.10 0.06 0.11 0.14 0.22 0.16 0.08 0.02 0.00 0.00 0.00 0.00 0.01 0.00
0.07 0.16 0.62 0.50 0.29 0.41 0.25 0.23 0.21 0.36 0.55 0.34 0.19 0.07 0.16 0.27 0.04 0.05 0.08 0.06 0.03 0.03 0.03 0.04 0.03 0.04 0.08 0.22 0.27 0.13 0.04 0.03 0.08 0.10 0.12 0.15 0.22 0.27 0.22 0.16 0.06 0.00 0.00 0.00 0.01 0.00 0.00
0.04 0.06 0.21 0.43 0.34 0.33 0.21 0.16 0.23 0.31 0.33 0.33 0.17 0.04 0.05 0.11 0.04 0.02 0.04 0.05 0.06 0.06 0.04 0.06 0.11 0.12 0.16 0.23 0.24 0.17 0.09 0.02 0.02 0.00 0.01 0.08 0.13 0.15 0.20 0.24 0.11 0.00 0.00 0.00 0.00 0.00 0.00
0.15 0.10 0.09 0.14 0.50 0.38 0.18 0.11 0.18 0.27 0.20 0.15 0.05 0.03 0.04 0.08 0.06 0.01 0.01 0.01 0.03 0.05 0.06 0.08 0.07 0.09 0.09 0.11 0.16 0.16 0.16 0.08 0.04 0.02 0.00 0.02 0.01 0.03 0.08 0.09 0.02 0.00 0.00 0.00 0.00 0.00 0.00

GFSGBSN_prec_precacc12_132.txt.gz
Total_Precipitation_Accumulation
0.47 0.41 0.32 0.14 0.08 0.04 0.01 0.01 0.01 0.01 0.01 0.01 0.01 0.01 0.01 0.00 0.00 0.00 0.00 0.00 0.00 0.00 0.00 0.00 0.00 0.00 0.00 0.00 0.00 0.00 0.00 0.00 0.00 0.00 0.00 0.00 0.00 0.00 0.00 0.00 0.00 0.00 0.00 0.00 0.00 0.00 0.00
0.76 0.75 0.65 0.49 0.38 0.20 0.11 0.06 0.03 0.02 0.02 0.03 0.01 0.01 0.00 0.00 0.00 0.00 0.00 0.00 0.00 0.00 0.00 0.00 0.00 0.00 0.00 0.00 0.00 0.00 0.00 0.00 0.00 0.00 0.00 0.00 0.00 0.00 0.00 0.00 0.00 0.00 0.00 0.00 0.00 0.00 0.00
0.58 0.62 0.66 0.69 0.73 0.76 0.76 0.55 0.33 0.23 0.14 0.07 0.02 0.01 0.00 0.00 0.00 0.00 0.00 0.00 0.00 0.00 0.00 0.00 0.00 0.00 0.00 0.00 0.00 0.00 0.00 0.00 0.00 0.00 0.00 0.00 0.00 0.00 0.00 0.00 0.00 0.00 0.00 0.00 0.00 0.00 0.00
0.35 0.45 0.51 0.51 0.48 0.47 0.51 0.58 0.58 0.45 0.30 0.17 0.08 0.03 0.00 0.00 0.00 0.00 0.00 0.00 0.00 0.00 0.00 0.00 0.00 0.00 0.00 0.00 0.00 0.00 0.00 0.00 0.00 0.00 0.00 0.00 0.00 0.00 0.00 0.00 0.00 0.00 0.00 0.00 0.00 0.00 0.00
0.23 0.28 0.32 0.33 0.32 0.35 0.36 0.34 0.29 0.28 0.25 0.16 0.10 0.05 0.02 0.01 0.00 0.00 0.00 0.00 0.00 0.00 0.00 0.00 0.00 0.00 0.00 0.00 0.00 0.00 0.00 0.00 0.00 0.00 0.00 0.00 0.00 0.00 0.00 0.00 0.00 0.00 0.00 0.00 0.00 0.00 0.00
0.18 0.19 0.23 0.29 0.29 0.23 0.19 0.16 0.14 0.09 0.07 0.05 0.04 0.02 0.01 0.00 0.00 0.00 0.00 0.00 0.00 0.00 0.00 0.00 0.00 0.00 0.00 0.00 0.00 0.00 0.00 0.00 0.00 0.00 0.00 0.00 0.00 0.00 0.00 0.00 0.00 0.00 0.00 0.00 0.00 0.00 0.00
0.21 0.23 0.21 0.22 0.26 0.27 0.20 0.14 0.12 0.10 0.06 0.03 0.02 0.01 0.01 0.00 0.00 0.00 0.00 0.00 0.00 0.00 0.00 0.00 0.00 0.00 0.00 0.00 0.00 0.00 0.00 0.00 0.00 0.00 0.00 0.00 0.00 0.00 0.00 0.00 0.00 0.00 0.00 0.00 0.00 0.00 0.00
0.10 0.16 0.26 0.34 0.34 0.28 0.22 0.18 0.10 0.07 0.05 0.03 0.01 0.00 0.00 0.00 0.00 0.00 0.00 0.00 0.00 0.00 0.00 0.00 0.00 0.00 0.00 0.00 0.00 0.00 0.00 0.00 0.00 0.00 0.00 0.00 0.00 0.00 0.00 0.00 0.00 0.00 0.00 0.00 0.00 0.00 0.00
0.07 0.09 0.13 0.19 0.29 0.36 0.34 0.30 0.21 0.08 0.04 0.04 0.03 0.01 0.00 0.00 0.00 0.01 0.00 0.00 0.00 0.00 0.00 0.00 0.00 0.00 0.00 0.00 0.00 0.00 0.00 0.00 0.00 0.00 0.00 0.00 0.00 0.00 0.00 0.00 0.00 0.00 0.00 0.00 0.00 0.00 0.00
0.05 0.07 0.10 0.12 0.15 0.21 0.30 0.28 0.24 0.18 0.11 0.07 0.04 0.02 0.01 0.01 0.01 0.00 0.00 0.00 0.00 0.00 0.01 0.00 0.00 0.00 0.00 0.00 0.00 0.00 0.00 0.00 0.00 0.00 0.00 0.00 0.00 0.00 0.00 0.00 0.00 0.00 0.00 0.00 0.00 0.00 0.00
0.05 0.04 0.05 0.10 0.17 0.21 0.25 0.27 0.31 0.24 0.17 0.14 0.07 0.02 0.01 0.00 0.01 0.00 0.00 0.00 0.00 0.00 0.10 0.00 0.00 0.00 0.00 0.00 0.00 0.00 0.00 0.00 0.00 0.00 0.00 0.00 0.00 0.00 0.00 0.00 0.00 0.00 0.00 0.00 0.00 0.00 0.00
0.09 0.07 0.05 0.07 0.12 0.14 0.17 0.19 0.21 0.25 0.19 0.12 0.07 0.03 0.02 0.02 0.02 0.00 0.00 0.00 0.01 0.06 0.07 0.00 0.00 0.00 0.00 0.00 0.00 0.00 0.00 0.00 0.00 0.00 0.00 0.00 0.00 0.00 0.00 0.00 0.00 0.00 0.00 0.00 0.00 0.00 0.00
0.17 0.14 0.09 0.08 0.09 0.13 0.20 0.22 0.19 0.20 0.22 0.18 0.12 0.05 0.01 0.00 0.00 0.02 0.04 0.06 0.06 0.08 0.01 0.00 0.00 0.00 0.00 0.00 0.00 0.00 0.00 0.00 0.00 0.00 0.00 0.00 0.00 0.00 0.00 0.00 0.00 0.00 0.00 0.00 0.00 0.00 0.00
0.04 0.18 0.23 0.13 0.10 0.11 0.17 0.30 0.33 0.25 0.24 0.25 0.23 0.17 0.05 0.00 0.00 0.05 0.17 0.15 0.08 0.02 0.00 0.00 0.00 0.00 0.00 0.00 0.00 0.00 0.00 0.00 0.00 0.00 0.00 0.00 0.00 0.00 0.00 0.00 0.00 0.00 0.00 0.00 0.00 0.00 0.00
0.02 0.04 0.14 0.29 0.25 0.14 0.14 0.25 0.38 0.54 0.50 0.37 0.41 0.37 0.14 0.03 0.00 0.10 0.25 0.31 0.04 0.00 0.00 0.00 0.00 0.00 0.00 0.00 0.00 0.00 0.00 0.00 0.00 0.00 0.00 0.00 0.00 0.00 0.00 0.00 0.00 0.00 0.00 0.00 0.02 0.02 0.01
0.03 0.04 0.06 0.13 0.32 0.40 0.26 0.14 0.24 0.46 0.77 0.88 0.81 0.62 0.36 0.02 0.04 0.16 0.44 0.25 0.00 0.00 0.00 0.00 0.00 0.00 0.00 0.00 0.00 0.00 0.00 0.00 0.00 0.00 0.00 0.00 0.00 0.00 0.00 0.00 0.00 0.00 0.00 0.01 0.05 0.04 0.01
0.02 0.05 0.03 0.05 0.11 0.33 0.53 0.43 0.21 0.25 0.62 0.96 1.28 1.34 0.62 0.08 0.15 0.30 0.50 0.16 0.00 0.00 0.00 0.00 0.00 0.00 0.00 0.00 0.00 0.00 0.00 0.00 0.00 0.00 0.00 0.00 0.00 0.00 0.00 0.00 0.00 0.00 0.00 0.00 0.04 0.02 0.01
0.02 0.03 0.05 0.06 0.06 0.11 0.32 0.65 0.55 0.34 0.51 1.06 1.38 1.14 0.43 0.28 0.48 0.43 0.21 0.02 0.00 0.00 0.00 0.00 0.00 0.00 0.00 0.00 0.00 0.00 0.00 0.00 0.00 0.00 0.00 0.00 0.01 0.01 0.00 0.00 0.00 0.01 0.01 0.04 0.10 0.08 0.06
0.03 0.03 0.03 0.08 0.07 0.06 0.12 0.28 0.74 0.64 0.71 1.19 1.23 0.86 0.44 0.51 0.76 0.32 0.02 0.00 0.00 0.00 0.01 0.02 0.00 0.00 0.00 0.00 0.00 0.00 0.01 0.02 0.00 0.00 0.00 0.04 0.06 0.07 0.06 0.06 0.03 0.01 0.01 0.04 0.09 0.14 0.11
0.02 0.03 0.04 0.13 0.20 0.09 0.08 0.15 0.28 0.74 0.89 1.14 1.07 0.91 0.99 0.97 0.56 0.12 0.02 0.01 0.00 0.00 0.01 0.02 0.01 0.00 0.00 0.00 0.00 0.00 0.03 0.02 0.00 0.00 0.00 0.05 0.04 0.06 0.05 0.05 0.08 0.09 0.06 0.09 0.14 0.19 0.14
0.02 0.03 0.07 0.12 0.23 0.26 0.18 0.13 0.19 0.33 1.00 1.14 1.13 0.79 0.68 0.96 0.60 0.11 0.01 0.00 0.00 0.00 0.02 0.04 0.08 0.02 0.01 0.01 0.00 0.00 0.01 0.02 0.00 0.00 0.00 0.03 0.02 0.02 0.00 0.01 0.05 0.06 0.05 0.04 0.08 0.10 0.17
0.01 0.02 0.12 0.23 0.14 0.25 0.31 0.30 0.17 0.29 0.71 1.04 0.93 0.50 0.34 0.25 0.15 0.05 0.05 0.02 0.00 0.00 0.02 0.03 0.02 0.00 0.02 0.04 0.02 0.01 0.02 0.04 0.03 0.02 0.03 0.05 0.04 0.02 0.01 0.00 0.02 0.05 0.03 0.00 0.00 0.01 0.03
0.02 0.01 0.04 0.12 0.21 0.17 0.29 0.40 0.35 0.30 0.68 1.23 0.93 0.37 0.18 0.19 0.11 0.18 0.11 0.01 0.00 0.01 0.01 0.01 0.02 0.07 0.06 0.03 0.08 0.07 0.09 0.07 0.07 0.06 0.10 0.10 0.07 0.07 0.06 0.01 0.05 0.09 0.00 0.00 0.00 0.00 0.00
0.09 0.05 0.12 0.17 0.09 0.17 0.20 0.34 0.44 0.39 0.59 0.60 0.36 0.43 0.43 0.23 0.15 0.13 0.02 0.00 0.00 0.01 0.04 0.03 0.02 0.06 0.03 0.05 0.06 0.06 0.04 0.04 0.03 0.02 0.05 0.13 0.17 0.29 0.21 0.13 0.30 0.06 0.00 0.00 0.00 0.00 0.00
0.16 0.24 0.17 0.33 0.26 0.13 0.17 0.26 0.33 0.47 0.59 0.44 0.29 0.31 0.55 0.48 0.10 0.05 0.02 0.02 0.03 0.03 0.03 0.06 0.03 0.04 0.07 0.15 0.15 0.10 0.07 0.10 0.01 0.01 0.01 0.02 0.10 0.29 0.27 0.14 0.06 0.00 0.00 0.00 0.00 0.01 0.00
0.13 0.31 0.49 0.18 0.41 0.24 0.18 0.23 0.20 0.42 0.78 0.34 0.29 0.23 0.31 0.36 0.30 0.07 0.05 0.06 0.08 0.08 0.09 0.04 0.04 0.04 0.07 0.13 0.26 0.18 0.08 0.04 0.03 0.04 0.05 0.11 0.14 0.24 0.22 0.13 0.04 0.00 0.00 0.00 0.01 0.02 0.00
0.07 0.17 0.63 0.50 0.29 0.41 0.25 0.22 0.20 0.39 0.58 0.41 0.27 0.12 0.24 0.30 0.08 0.09 0.09 0.07 0.05 0.06 0.11 0.07 0.07 0.07 0.09 0.10 0.15 0.09 0.04 0.03 0.08 0.11 0.13 0.13 0.19 0.27 0.22 0.18 0.06 0.00 0.00 0.00 0.02 0.00 0.00
0.03 0.06 0.21 0.43 0.35 0.33 0.21 0.17 0.31 0.39 0.42 0.44 0.29 0.09 0.12 0.14 0.04 0.03 0.05 0.06 0.07 0.09 0.09 0.09 0.13 0.12 0.13 0.13 0.08 0.05 0.07 0.03 0.02 0.01 0.02 0.11 0.17 0.16 0.21 0.26 0.13 0.00 0.00 0.00 0.00 0.00 0.00
0.00 0.01 0.07 0.15 0.58 0.43 0.20 0.14 0.39 0.48 0.39 0.43 0.27 0.16 0.11 0.07 0.03 0.01 0.01 0.01 0.03 0.04 0.07 0.09 0.07 0.09 0.10 0.09 0.07 0.08 0.10 0.08 0.04 0.02 0.01 0.02 0.03 0.06 0.12 0.14 0.04 0.00 0.00 0.00 0.00 0.00 0.00

GFSGBSN_prec_precacc12_135.txt.gz
Total_Precipitation_Accumulation
0.58 0.46 0.35 0.17 0.11 0.08 0.05 0.04 0.01 0.01 0.01 0.01 0.01 0.01 0.01 0.00 0.00 0.00 0.00 0.00 0.00 0.00 0.00 0.00 0.00 0.00 0.00 0.00 0.00 0.00 0.00 0.00 0.00 0.00 0.00 0.00 0.00 0.00 0.00 0.00 0.00 0.00 0.00 0.00 0.00 0.00 0.00
0.76 0.79 0.74 0.58 0.43 0.26 0.17 0.10 0.04 0.02 0.04 0.07 0.05 0.03 0.02 0.01 0.00 0.00 0.00 0.00 0.00 0.00 0.00 0.00 0.00 0.00 0.00 0.00 0.00 0.00 0.00 0.00 0.00 0.00 0.00 0.00 0.00 0.00 0.00 0.00 0.00 0.00 0.00 0.00 0.00 0.00 0.00
0.48 0.58 0.70 0.78 0.84 0.87 0.86 0.63 0.45 0.39 0.36 0.31 0.25 0.13 0.06 0.02 0.00 0.00 0.00 0.00 0.00 0.00 0.00 0.00 0.00 0.00 0.00 0.00 0.00 0.00 0.00 0.00 0.00 0.00 0.00 0.00 0.00 0.00 0.00 0.00 0.00 0.00 0.00 0.00 0.00 0.00 0.00
0.21 0.29 0.37 0.42 0.46 0.51 0.58 0.67 0.75 0.77 0.64 0.47 0.34 0.21 0.10 0.05 0.02 0.00 0.00 0.00 0.00 0.00 0.00 0.00 0.00 0.00 0.00 0.00 0.00 0.00 0.00 0.00 0.00 0.00 0.00 0.00 0.00 0.00 0.00 0.00 0.00 0.00 0.00 0.00 0.00 0.00 0.00
0.18 0.20 0.23 0.26 0.28 0.31 0.37 0.40 0.40 0.40 0.39 0.32 0.22 0.14 0.08 0.05 0.03 0.01 0.00 0.00 0.00 0.00 0.00 0.00 0.00 0.00 0.00 0.00 0.00 0.00 0.00 0.00 0.00 0.00 0.00 0.00 0.00 0.00 0.00 0.00 0.00 0.00 0.00 0.00 0.00 0.00 0.00
0.16 0.18 0.21 0.26 0.26 0.22 0.17 0.17 0.20 0.20 0.19 0.18 0.16 0.11 0.04 0.01 0.00 0.00 0.00 0.00 0.00 0.00 0.00 0.00 0.00 0.00 0.00 0.00 0.00 0.00 0.00 0.00 0.00 0.00 0.00 0.00 0.00 0.00 0.00 0.00 0.00 0.00 0.00 0.00 0.00 0.00 0.00
0.15 0.20 0.20 0.22 0.26 0.29 0.30 0.20 0.12 0.12 0.10 0.09 0.10 0.12 0.11 0.07 0.02 0.00 0.00 0.00 0.00 0.00 0.00 0.00 0.00 0.00 0.00 0.00 0.00 0.00 0.00 0.00 0.00 0.00 0.00 0.00 0.00 0.00 0.00 0.00 0.00 0.00 0.00 0.00 0.00 0.00 0.00
0.02 0.10 0.23 0.32 0.33 0.27 0.22 0.24 0.17 0.10 0.07 0.06 0.03 0.03 0.04 0.04 0.02 0.01 0.01 0.00 0.00 0.00 0.00 0.00 0.00 0.00 0.00 0.00 0.00 0.00 0.00 0.00 0.00 0.00 0.00 0.00 0.00 0.00 0.00 0.00 0.00 0.00 0.00 0.00 0.00 0.00 0.00
0.00 0.02 0.08 0.16 0.26 0.34 0.34 0.30 0.24 0.14 0.07 0.06 0.05 0.03 0.02 0.01 0.00 0.00 0.00 0.00 0.00 0.00 0.00 0.00 0.00 0.00 0.00 0.00 0.00 0.00 0.00 0.00 0.00 0.00 0.00 0.00 0.00 0.00 0.00 0.00 0.00 0.00 0.00 0.00 0.00 0.00 0.00
0.01 0.01 0.05 0.09 0.12 0.19 0.28 0.28 0.24 0.23 0.16 0.08 0.05 0.04 0.04 0.04 0.03 0.00 0.01 0.00 0.00 0.00 0.02 0.00 0.00 0.00 0.00 0.00 0.00 0.00 0.00 0.00 0.00 0.00 0.00 0.00 0.00 0.00 0.00 0.00 0.00 0.00 0.00 0.00 0.00 0.00 0.00
0.02 0.01 0.01 0.06 0.14 0.18 0.22 0.25 0.30 0.30 0.28 0.20 0.09 0.04 0.03 0.01 0.02 0.01 0.00 0.00 0.00 0.01 0.20 0.01 0.00 0.00 0.00 0.00 0.00 0.00 0.00 0.00 0.00 0.00 0.00 0.00 0.00 0.00 0.00 0.00 0.00 0.00 0.00 0.00 0.00 0.00 0.00
0.04 0.04 0.03 0.03 0.07 0.10 0.14 0.16 0.18 0.24 0.28 0.35 0.18 0.10 0.04 0.03 0.02 0.01 0.01 0.01 0.02 0.12 0.15 0.00 0.00 0.00 0.00 0.00 0.00 0.00 0.00 0.00 0.00 0.00 0.00 0.00 0.00 0.00 0.00 0.00 0.00 0.00 0.00 0.00 0.00 0.00 0.00
0.01 0.03 0.04 0.04 0.05 0.08 0.16 0.18 0.16 0.18 0.20 0.23 0.20 0.16 0.08 0.00 0.00 0.02 0.05 0.07 0.13 0.16 0.02 0.00 0.00 0.00 0.00 0.00 0.00 0.00 0.00 0.00 0.00 0.00 0.00 0.00 0.00 0.00 0.00 0.00 0.00 0.00 0.00 0.00 0.00 0.00 0.00
0.00 0.02 0.03 0.06 0.06 0.08 0.10 0.25 0.29 0.23 0.22 0.24 0.24 0.27 0.20 0.04 0.00 0.07 0.24 0.22 0.17 0.02 0.00 0.00 0.00 0.00 0.00 0.00 0.00 0.00 0.00 0.00 0.00 0.00 0.00 0.00 0.00 0.00 0.00 0.00 0.00 0.00 0.00 0.00 0.00 0.00 0.00
0.00 0.01 0.01 0.04 0.10 0.07 0.09 0.14 0.33 0.51 0.48 0.35 0.40 0.48 0.44 0.14 0.03 0.13 0.53 0.56 0.07 0.00 0.00 0.00 0.00 0.00 0.00 0.00 0.00 0.00 0.00 0.00 0.00 0.00 0.00 0.00 0.00 0.00 0.00 0.00 0.00 0.00 0.00 0.00 0.00 0.00 0.00
0.00 0.00 0.01 0.03 0.07 0.21 0.17 0.10 0.20 0.44 0.74 0.86 0.81 0.66 0.56 0.12 0.11 0.27 0.70 0.46 0.01 0.00 0.00 0.00 0.00 0.00 0.00 0.00 0.00 0.00 0.00 0.00 0.00 0.00 0.00 0.00 0.00 0.00 0.00 0.00 0.00 0.00 0.00 0.00 0.02 0.01 0.01
0.00 0.00 0.01 0.02 0.02 0.09 0.26 0.27 0.14 0.24 0.58 0.95 1.28 1.34 0.66 0.10 0.34 0.74 0.90 0.31 0.01 0.00 0.00 0.00 0.00 0.00 0.00 0.00 0.00 0.00 0.00 0.00 0.00 0.00 0.00 0.00 0.00 0.00 0.00 0.00 0.00 0.00 0.00 0.00 0.02 0.01 0.01
0.00 0.00 0.00 0.01 0.02 0.01 0.08 0.31 0.35 0.24 0.45 1.03 1.38 1.14 0.43 0.31 0.87 1.07 0.47 0.07 0.00 0.00 0.00 0.00 0.00 0.00 0.00 0.00 0.00 0.00 0.00 0.00 0.00 0.00 0.00 0.00 0.00 0.00 0.00 0.00 0.00 0.00 0.00 0.02 0.04 0.03 0.03
0.00 0.00 0.00 0.01 0.01 0.01 0.01 0.11 0.51 0.50 0.53 1.07 1.20 0.86 0.43 0.47 1.03 0.70 0.17 0.00 0.00 0.00 0.01 0.02 0.01 0.00 0.00 0.00 0.00 0.00 0.02 0.03 0.01 0.00 0.01 0.02 0.02 0.03 0.02 0.03 0.02 0.01 0.01 0.01 0.05 0.11 0.09
0.00 0.00 0.00 0.01 0.02 0.02 0.02 0.04 0.21 0.69 0.82 1.04 0.97 0.85 0.96 0.90 0.62 0.31 0.18 0.05 0.00 0.00 0.01 0.03 0.02 0.00 0.00 0.00 0.00 0.00 0.07 0.08 0.05 0.04 0.02 0.04 0.02 0.03 0.01 0.03 0.07 0.10 0.05 0.07 0.11 0.17 0.12
0.00 0.00 0.01 0.01 0.03 0.03 0.03 0.06 0.16 0.30 0.97 1.11 1.00 0.71 0.66 0.92 0.60 0.19 0.08 0.07 0.02 0.00 0.01 0.06 0.18 0.02 0.01 0.01 0.00 0.01 0.07 0.10 0.10 0.14 0.14 0.14 0.11 0.04 0.00 0.00 0.04 0.07 0.06 0.03 0.07 0.12 0.18
0.01 0.00 0.00 0.01 0.02 0.02 0.09 0.17 0.14 0.25 0.66 1.00 0.81 0.45 0.36 0.25 0.17 0.16 0.10 0.07 0.03 0.01 0.01 0.03 0.03 0.01 0.03 0.04 0.02 0.01 0.06 0.10 0.05 0.03 0.09 0.10 0.11 0.08 0.02 0.00 0.00 0.05 0.03 0.00 0.01 0.01 0.02
0.01 0.01 0.00 0.01 0.02 0.02 0.04 0.27 0.31 0.26 0.63 1.08 0.72 0.31 0.21 0.22 0.13 0.24 0.17 0.07 0.04 0.03 0.02 0.01 0.02 0.08 0.06 0.03 0.08 0.06 0.08 0.07 0.06 0.05 0.08 0.08 0.06 0.06 0.05 0.01 0.04 0.08 0.01 0.00 0.00 0.00 0.00
0.01 0.02 0.02 0.02 0.01 0.03 0.09 0.23 0.41 0.37 0.58 0.56 0.29 0.32 0.43 0.23 0.15 0.16 0.04 0.01 0.01 0.02 0.06 0.04 0.03 0.08 0.04 0.05 0.06 0.06 0.04 0.04 0.03 0.02 0.05 0.12 0.14 0.24 0.17 0.10 0.27 0.07 0.00 0.00 0.00 0.00 0.00
0.02 0.07 0.05 0.02 0.03 0.04 0.11 0.21 0.30 0.45 0.59 0.47 0.25 0.24 0.51 0.51 0.12 0.07 0.03 0.03 0.04 0.05 0.06 0.07 0.04 0.05 0.08 0.15 0.13 0.09 0.07 0.10 0.01 0.00 0.00 0.01 0.09 0.25 0.25 0.15 0.09 0.01 0.00 0.00 0.01 0.01 0.00
0.04 0.14 0.21 0.05 0.07 0.14 0.16 0.22 0.17 0.40 0.77 0.38 0.31 0.22 0.27 0.45 0.32 0.10 0.08 0.08 0.12 0.13 0.19 0.13 0.10 0.05 0.08 0.13 0.22 0.16 0.08 0.04 0.03 0.02 0.00 0.00 0.02 0.15 0.17 0.21 0.10 0.00 0.00 0.00 0.01 0.03 0.00
0.06 0.12 0.51 0.41 0.21 0.34 0.23 0.21 0.19 0.38 0.55 0.42 0.29 0.16 0.27 0.44 0.17 0.19 0.19 0.11 0.08 0.11 0.20 0.15 0.15 0.09 0.10 0.10 0.14 0.09 0.04 0.03 0.06 0.04 0.06 0.05 0.06 0.10 0.15 0.20 0.09 0.00 0.00 0.00 0.03 0.01 0.00
0.04 0.06 0.21 0.42 0.34 0.32 0.20 0.16 0.30 0.38 0.39 0.46 0.32 0.13 0.17 0.25 0.10 0.10 0.22 0.22 0.11 0.15 0.17 0.21 0.25 0.15 0.12 0.10 0.07 0.05 0.02 0.01 0.02 0.01 0.02 0.13 0.24 0.19 0.22 0.28 0.14 0.00 0.00 0.01 0.00 0.00 0.00
0.00 0.01 0.07 0.15 0.58 0.43 0.20 0.14 0.38 0.47 0.36 0.44 0.31 0.19 0.16 0.22 0.16 0.09 0.08 0.13 0.08 0.08 0.13 0.14 0.11 0.10 0.08 0.08 0.05 0.06 0.04 0.03 0.02 0.01 0.01 0.02 0.03 0.08 0.17 0.16 0.04 0.00 0.00 0.00 0.00 0.00 0.00

GFSGBSN_prec_precacc12_138.txt.gz
Total_Precipitation_Accumulation
0.63 0.56 0.44 0.24 0.13 0.09 0.05 0.04 0.01 0.01 0.01 0.01 0.01 0.01 0.01 0.00 0.00 0.00 0.00 0.00 0.00 0.00 0.00 0.00 0.00 0.00 0.00 0.00 0.00 0.00 0.00 0.00 0.00 0.00 0.00 0.00 0.00 0.00 0.00 0.00 0.00 0.00 0.00 0.00 0.00 0.00 0.00
0.64 0.67 0.71 0.66 0.52 0.30 0.16 0.08 0.03 0.02 0.04 0.08 0.11 0.11 0.09 0.06 0.03 0.01 0.00 0.00 0.00 0.00 0.00 0.00 0.00 0.00 0.00 0.00 0.00 0.00 0.00 0.00 0.00 0.00 0.00 0.00 0.00 0.00 0.00 0.00 0.00 0.00 0.00 0.00 0.00 0.00 0.00
0.44 0.48 0.54 0.60 0.70 0.79 0.84 0.60 0.42 0.40 0.47 0.49 0.36 0.30 0.21 0.12 0.05 0.01 0.00 0.00 0.00 0.00 0.00 0.00 0.00 0.00 0.00 0.00 0.00 0.00 0.00 0.00 0.00 0.00 0.00 0.00 0.00 0.00 0.00 0.00 0.00 0.00 0.00 0.00 0.00 0.00 0.00
0.22 0.24 0.28 0.33 0.36 0.40 0.54 0.68 0.77 0.81 0.78 0.67 0.52 0.34 0.20 0.11 0.06 0.02 0.01 0.00 0.00 0.00 0.00 0.00 0.00 0.00 0.00 0.00 0.00 0.00 0.00 0.00 0.00 0.00 0.00 0.00 0.00 0.00 0.00 0.00 0.00 0.00 0.00 0.00 0.00 0.00 0.00
0.09 0.11 0.13 0.17 0.21 0.25 0.30 0.34 0.37 0.40 0.41 0.40 0.33 0.25 0.17 0.09 0.04 0.01 0.00 0.00 0.00 0.00 0.00 0.00 0.00 0.00 0.00 0.00 0.00 0.00 0.00 0.00 0.00 0.00 0.00 0.00 0.00 0.00 0.00 0.00 0.00 0.00 0.00 0.00 0.00 0.00 0.00
0.06 0.10 0.15 0.18 0.19 0.16 0.14 0.15 0.19 0.20 0.20 0.21 0.21 0.18 0.14 0.09 0.06 0.03 0.01 0.00 0.00 0.00 0.00 0.00 0.00 0.00 0.00 0.00 0.00 0.00 0.00 0.00 0.00 0.00 0.00 0.00 0.00 0.00 0.00 0.00 0.00 0.00 0.00 0.00 0.00 0.00 0.00
0.05 0.06 0.10 0.19 0.23 0.28 0.30 0.23 0.11 0.11 0.10 0.11 0.15 0.21 0.24 0.21 0.14 0.07 0.03 0.02 0.01 0.00 0.00 0.00 0.00 0.00 0.00 0.00 0.00 0.00 0.00 0.00 0.00 0.00 0.00 0.00 0.00 0.00 0.00 0.00 0.00 0.00 0.00 0.00 0.00 0.00 0.00
0.01 0.02 0.05 0.15 0.26 0.24 0.21 0.26 0.25 0.11 0.08 0.06 0.03 0.03 0.06 0.07 0.06 0.05 0.05 0.07 0.03 0.00 0.00 0.00 0.00 0.00 0.00 0.00 0.00 0.00 0.00 0.00 0.00 0.00 0.00 0.00 0.00 0.00 0.00 0.00 0.00 0.00 0.00 0.00 0.00 0.00 0.00
0.00 0.00 0.00 0.02 0.13 0.28 0.29 0.27 0.24 0.16 0.08 0.06 0.05 0.03 0.03 0.02 0.01 0.01 0.01 0.02 0.01 0.00 0.00 0.00 0.00 0.00 0.00 0.00 0.00 0.00 0.00 0.00 0.00 0.00 0.00 0.00 0.00 0.00 0.00 0.00 0.00 0.00 0.00 0.00 0.00 0.00 0.00
0.00 0.00 0.00 0.00 0.01 0.13 0.24 0.24 0.22 0.22 0.16 0.10 0.08 0.05 0.05 0.04 0.02 0.00 0.01 0.00 0.00 0.00 0.03 0.00 0.00 0.00 0.00 0.00 0.00 0.00 0.00 0.00 0.00 0.00 0.00 0.00 0.00 0.00 0.00 0.00 0.00 0.00 0.00 0.00 0.00 0.00 0.00
0.00 0.00 0.00 0.00 0.00 0.06 0.17 0.22 0.27 0.29 0.28 0.21 0.15 0.05 0.03 0.01 0.02 0.02 0.00 0.00 0.00 0.01 0.21 0.01 0.00 0.00 0.00 0.00 0.00 0.00 0.00 0.00 0.00 0.00 0.00 0.00 0.00 0.00 0.00 0.00 0.00 0.00 0.00 0.00 0.00 0.00 0.00
0.00 0.00 0.00 0.00 0.00 0.01 0.07 0.13 0.15 0.21 0.28 0.45 0.40 0.16 0.05 0.03 0.02 0.01 0.01 0.01 0.03 0.15 0.16 0.00 0.00 0.00 0.00 0.00 0.00 0.00 0.00 0.00 0.00 0.00 0.00 0.00 0.00 0.00 0.00 0.00 0.00 0.00 0.00 0.00 0.00 0.00 0.00
0.00 0.00 0.00 0.00 0.00 0.00 0.03 0.10 0.12 0.15 0.18 0.23 0.37 0.34 0.16 0.02 0.00 0.03 0.05 0.07 0.17 0.18 0.02 0.00 0.00 0.00 0.00 0.00 0.00 0.00 0.00 0.00 0.00 0.00 0.00 0.00 0.00 0.00 0.00 0.00 0.00 0.00 0.00 0.00 0.00 0.00 0.00
0.00 0.00 0.00 0.00 0.00 0.02 0.02 0.08 0.16 0.17 0.20 0.22 0.24 0.29 0.29 0.07 0.01 0.07 0.25 0.25 0.20 0.02 0.00 0.00 0.00 0.00 0.00 0.00 0.00 0.00 0.00 0.00 0.00 0.00 0.00 0.00 0.00 0.00 0.00 0.00 0.00 0.00 0.00 0.00 0.00 0.00 0.00
0.00 0.00 0.00 0.00 0.00 0.00 0.01 0.03 0.13 0.25 0.29 0.30 0.37 0.47 0.46 0.18 0.11 0.22 0.61 0.70 0.08 0.00 0.00 0.00 0.00 0.00 0.00 0.00 0.00 0.00 0.00 0.00 0.00 0.00 0.00 0.00 0.00 0.00 0.00 0.00 0.00 0.00 0.00 0.00 0.00 0.00 0.00
0.00 0.00 0.00 0.00 0.00 0.00 0.00 0.02 0.05 0.14 0.37 0.55 0.64 0.62 0.55 0.13 0.20 0.46 0.93 0.64 0.02 0.00 0.00 0.00 0.00 0.00 0.00 0.00 0.00 0.00 0.00 0.00 0.00 0.00 0.00 0.00 0.00 0.00 0.00 0.00 0.00 0.00 0.00 0.00 0.00 0.00 0.00
0.00 0.00 0.00 0.00 0.00 0.00 0.00 0.01 0.04 0.10 0.19 0.58 1.05 1.24 0.65 0.09 0.42 1.12 1.23 0.43 0.01 0.00 0.00 0.00 0.00 0.00 0.00 0.00 0.00 0.00 0.01 0.00 0.00 0.00 0.00 0.00 0.00 0.00 0.00 0.00 0.00 0.00 0.00 0.00 0.00 0.00 0.00
0.00 0.00 0.00 0.00 0.00 0.00 0.00 0.00 0.02 0.06 0.24 0.64 1.18 1.07 0.42 0.30 0.89 1.27 0.64 0.09 0.00 0.00 0.00 0.00 0.00 0.00 0.00 0.00 0.00 0.00 0.01 0.02 0.00 0.00 0.00 0.00 0.00 0.00 0.00 0.00 0.00 0.00 0.00 0.00 0.01 0.01 0.01
0.00 0.00 0.00 0.00 0.00 0.00 0.00 0.00 0.02 0.07 0.23 0.76 1.03 0.83 0.38 0.42 1.02 0.72 0.25 0.03 0.00 0.00 0.01 0.02 0.01 0.00 0.00 0.00 0.00 0.00 0.02 0.04 0.05 0.02 0.02 0.00 0.00 0.00 0.00 0.01 0.01 0.00 0.00 0.00 0.01 0.04 0.03
0.00 0.00 0.00 0.00 0.00 0.00 0.00 0.00 0.00 0.02 0.19 0.76 0.82 0.73 0.84 0.80 0.60 0.31 0.18 0.09 0.03 0.00 0.01 0.04 0.05 0.00 0.00 0.00 0.00 0.00 0.08 0.08 0.07 0.12 0.16 0.09 0.04 0.02 0.00 0.01 0.05 0.06 0.02 0.02 0.05 0.12 0.09
0.00 0.00 0.00 0.00 0.00 0.00 0.01 0.01 0.01 0.03 0.24 0.70 0.75 0.57 0.59 0.80 0.56 0.19 0.08 0.07 0.03 0.01 0.01 0.06 0.29 0.07 0.01 0.02 0.01 0.03 0.09 0.11 0.12 0.19 0.26 0.36 0.37 0.21 0.05 0.02 0.04 0.06 0.05 0.02 0.06 0.09 0.15
0.01 0.00 0.00 0.00 0.00 0.00 0.01 0.03 0.03 0.06 0.31 0.65 0.61 0.36 0.33 0.24 0.17 0.15 0.10 0.08 0.04 0.01 0.01 0.03 0.08 0.02 0.04 0.04 0.02 0.04 0.07 0.09 0.05 0.02 0.12 0.23 0.33 0.32 0.18 0.18 0.10 0.08 0.04 0.02 0.05 0.04 0.04
0.00 0.00 0.00 0.00 0.00 0.01 0.01 0.03 0.04 0.07 0.31 0.60 0.54 0.30 0.21 0.21 0.12 0.22 0.16 0.07 0.04 0.03 0.02 0.01 0.03 0.06 0.05 0.02 0.06 0.04 0.06 0.05 0.05 0.05 0.06 0.08 0.07 0.11 0.11 0.13 0.15 0.10 0.02 0.01 0.02 0.02 0.02
0.00 0.00 0.00 0.00 0.01 0.01 0.01 0.03 0.04 0.09 0.30 0.35 0.23 0.29 0.41 0.22 0.14 0.15 0.04 0.02 0.01 0.02 0.07 0.04 0.05 0.11 0.05 0.05 0.08 0.06 0.05 0.04 0.03 0.02 0.04 0.11 0.12 0.19 0.14 0.06 0.25 0.10 0.00 0.00 0.00 0.00 0.00
0.00 0.00 0.01 0.01 0.02 0.02 0.02 0.04 0.04 0.24 0.31 0.30 0.22 0.23 0.45 0.42 0.10 0.06 0.03 0.03 0.03 0.03 0.05 0.06 0.04 0.08 0.08 0.20 0.29 0.15 0.07 0.09 0.01 0.00 0.00 0.01 0.07 0.22 0.22 0.13 0.08 0.01 0.00 0.00 0.01 0.01 0.00
0.01 0.02 0.02 0.02 0.01 0.01 0.03 0.04 0.05 0.28 0.62 0.27 0.24 0.23 0.28 0.42 0.25 0.08 0.08 0.09 0.12 0.12 0.18 0.14 0.12 0.06 0.16 0.32 0.41 0.18 0.07 0.03 0.02 0.01 0.00 0.00 0.02 0.12 0.15 0.18 0.09 0.00 0.00 0.00 0.01 0.04 0.00
0.03 0.04 0.11 0.22 0.07 0.02 0.02 0.09 0.13 0.32 0.51 0.41 0.29 0.19 0.31 0.46 0.17 0.17 0.17 0.10 0.07 0.12 0.26 0.18 0.25 0.21 0.15 0.26 0.19 0.12 0.03 0.02 0.05 0.04 0.06 0.03 0.03 0.05 0.04 0.10 0.04 0.00 0.00 0.00 0.03 0.01 0.00
0.04 0.04 0.11 0.22 0.18 0.04 0.02 0.09 0.28 0.35 0.39 0.47 0.32 0.14 0.19 0.28 0.11 0.09 0.22 0.26 0.18 0.16 0.21 0.25 0.37 0.35 0.33 0.13 0.09 0.04 0.01 0.00 0.01 0.01 0.02 0.10 0.16 0.11 0.11 0.15 0.07 0.00 0.00 0.01 0.00 0.00 0.00
0.00 0.01 0.05 0.13 0.49 0.33 0.10 0.10 0.36 0.45 0.36 0.48 0.32 0.19 0.16 0.25 0.17 0.09 0.09 0.17 0.19 0.17 0.21 0.21 0.20 0.17 0.21 0.08 0.03 0.04 0.03 0.02 0.02 0.01 0.00 0.02 0.03 0.07 0.15 0.16 0.04 0.00 0.00 0.00 0.00 0.00 0.00

GFSGBSN_prec_precacc12_141.txt.gz
Total_Precipitation_Accumulation
0.50 0.39 0.35 0.22 0.13 0.09 0.05 0.04 0.01 0.00 0.00 0.00 0.01 0.01 0.01 0.00 0.00 0.00 0.00 0.00 0.00 0.00 0.00 0.00 0.00 0.00 0.00 0.00 0.00 0.00 0.00 0.00 0.00 0.00 0.00 0.00 0.00 0.00 0.00 0.00 0.00 0.00 0.00 0.00 0.00 0.00 0.00
0.64 0.62 0.57 0.53 0.47 0.33 0.19 0.09 0.03 0.02 0.04 0.09 0.12 0.12 0.10 0.08 0.04 0.01 0.00 0.00 0.00 0.00 0.00 0.00 0.00 0.00 0.00 0.00 0.00 0.00 0.00 0.00 0.00 0.00 0.00 0.00 0.00 0.00 0.00 0.00 0.00 0.00 0.00 0.00 0.00 0.00 0.00
0.59 0.63 0.67 0.59 0.46 0.41 0.51 0.52 0.42 0.43 0.54 0.58 0.42 0.31 0.22 0.12 0.07 0.03 0.01 0.00 0.00 0.00 0.00 0.00 0.00 0.00 0.00 0.00 0.00 0.00 0.00 0.00 0.00 0.00 0.00 0.00 0.00 0.00 0.00 0.00 0.00 0.00 0.00 0.00 0.00 0.00 0.00
0.41 0.45 0.47 0.49 0.46 0.40 0.42 0.52 0.65 0.78 0.84 0.74 0.60 0.40 0.23 0.12 0.07 0.03 0.01 0.00 0.00 0.00 0.00 0.00 0.00 0.00 0.00 0.00 0.00 0.00 0.00 0.00 0.00 0.00 0.00 0.00 0.00 0.00 0.00 0.00 0.00 0.00 0.00 0.00 0.00 0.00 0.00
0.11 0.15 0.17 0.23 0.26 0.26 0.29 0.31 0.31 0.33 0.37 0.41 0.36 0.27 0.18 0.10 0.04 0.01 0.00 0.00 0.00 0.00 0.00 0.00 0.00 0.00 0.00 0.00 0.00 0.00 0.00 0.00 0.00 0.00 0.00 0.00 0.00 0.00 0.00 0.00 0.00 0.00 0.00 0.00 0.00 0.00 0.00
0.03 0.04 0.05 0.09 0.12 0.10 0.09 0.12 0.17 0.18 0.18 0.21 0.23 0.19 0.14 0.09 0.06 0.03 0.02 0.01 0.00 0.00 0.00 0.00 0.00 0.00 0.00 0.00 0.00 0.00 0.00 0.00 0.00 0.00 0.00 0.00 0.00 0.00 0.00 0.00 0.00 0.00 0.00 0.00 0.00 0.00 0.00
0.02 0.02 0.02 0.05 0.14 0.24 0.27 0.20 0.06 0.08 0.09 0.10 0.15 0.21 0.26 0.23 0.17 0.10 0.05 0.03 0.02 0.01 0.00 0.00 0.00 0.00 0.00 0.00 0.00 0.00 0.00 0.00 0.00 0.00 0.00 0.00 0.00 0.00 0.00 0.00 0.00 0.00 0.00 0.00 0.00 0.00 0.00
0.01 0.01 0.01 0.01 0.02 0.10 0.18 0.26 0.30 0.11 0.07 0.06 0.04 0.04 0.06 0.08 0.07 0.05 0.05 0.07 0.05 0.03 0.01 0.00 0.00 0.00 0.00 0.00 0.00 0.00 0.00 0.00 0.00 0.00 0.00 0.00 0.00 0.00 0.00 0.00 0.00 0.00 0.00 0.00 0.00 0.00 0.00
0.01 0.01 0.01 0.01 0.00 0.02 0.13 0.20 0.23 0.27 0.10 0.07 0.05 0.03 0.03 0.02 0.01 0.01 0.01 0.02 0.01 0.00 0.00 0.00 0.00 0.00 0.00 0.00 0.00 0.00 0.00 0.00 0.00 0.00 0.00 0.00 0.00 0.00 0.00 0.00 0.00 0.00 0.00 0.00 0.00 0.00 0.00
0.00 0.00 0.00 0.00 0.00 0.00 0.01 0.07 0.13 0.20 0.18 0.11 0.08 0.05 0.05 0.04 0.02 0.00 0.01 0.00 0.00 0.00 0.03 0.00 0.00 0.00 0.00 0.00 0.00 0.00 0.00 0.00 0.00 0.00 0.00 0.00 0.00 0.00 0.00 0.00 0.00 0.00 0.00 0.00 0.00 0.00 0.00
0.00 0.00 0.00 0.00 0.00 0.00 0.00 0.03 0.18 0.22 0.24 0.21 0.16 0.07 0.03 0.01 0.02 0.02 0.00 0.00 0.00 0.01 0.20 0.01 0.00 0.00 0.00 0.00 0.00 0.00 0.00 0.00 0.00 0.00 0.00 0.00 0.00 0.00 0.00 0.00 0.00 0.00 0.00 0.00 0.00 0.00 0.00
0.00 0.00 0.00 0.00 0.00 0.00 0.00 0.00 0.02 0.11 0.22 0.43 0.42 0.19 0.07 0.02 0.00 0.01 0.00 0.01 0.03 0.14 0.15 0.00 0.00 0.00 0.00 0.00 0.00 0.00 0.00 0.00 0.00 0.00 0.00 0.00 0.00 0.00 0.00 0.00 0.00 0.00 0.00 0.00 0.00 0.00 0.00
0.00 0.00 0.00 0.00 0.00 0.00 0.00 0.00 0.00 0.03 0.06 0.17 0.43 0.48 0.19 0.02 0.00 0.02 0.03 0.05 0.17 0.18 0.01 0.00 0.00 0.00 0.00 0.00 0.00 0.00 0.00 0.00 0.00 0.00 0.00 0.00 0.00 0.00 0.00 0.00 0.00 0.00 0.00 0.00 0.00 0.00 0.00
0.00 0.00 0.00 0.00 0.00 0.00 0.00 0.00 0.00 0.01 0.04 0.14 0.24 0.51 0.45 0.11 0.05 0.06 0.19 0.22 0.19 0.01 0.00 0.00 0.00 0.00 0.00 0.00 0.00 0.00 0.00 0.00 0.00 0.00 0.00 0.00 0.00 0.00 0.00 0.00 0.00 0.00 0.00 0.00 0.00 0.00 0.00
0.00 0.00 0.00 0.00 0.00 0.00 0.00 0.00 0.00 0.00 0.02 0.14 0.32 0.47 0.53 0.28 0.20 0.21 0.56 0.63 0.07 0.00 0.00 0.00 0.00 0.00 0.00 0.00 0.00 0.00 0.00 0.00 0.00 0.00 0.00 0.00 0.00 0.00 0.00 0.00 0.00 0.00 0.00 0.00 0.00 0.01 0.01
0.00 0.00 0.00 0.00 0.00 0.00 0.00 0.00 0.00 0.00 0.00 0.06 0.31 0.51 0.53 0.14 0.31 0.60 1.12 0.67 0.01 0.00 0.00 0.00 0.00 0.00 0.00 0.00 0.00 0.00 0.00 0.00 0.00 0.00 0.00 0.00 0.00 0.00 0.00 0.00 0.00 0.00 0.00 0.00 0.01 0.04 0.00
0.00 0.00 0.00 0.00 0.00 0.00 0.00 0.00 0.00 0.00 0.00 0.04 0.31 0.62 0.43 0.06 0.48 1.39 1.40 0.48 0.01 0.00 0.00 0.00 0.00 0.00 0.00 0.00 0.00 0.00 0.01 0.00 0.00 0.00 0.00 0.00 0.00 0.00 0.00 0.00 0.00 0.00 0.00 0.00 0.00 0.00 0.00
0.00 0.00 0.00 0.00 0.00 0.00 0.00 0.00 0.00 0.00 0.02 0.05 0.32 0.50 0.20 0.19 0.87 1.31 0.67 0.11 0.00 0.00 0.00 0.00 0.00 0.00 0.00 0.00 0.00 0.00 0.02 0.03 0.00 0.00 0.00 0.00 0.00 0.00 0.00 0.00 0.00 0.00 0.00 0.00 0.01 0.01 0.00
0.00 0.00 0.00 0.00 0.00 0.00 0.00 0.00 0.00 0.00 0.03 0.06 0.21 0.34 0.18 0.28 0.88 0.70 0.25 0.04 0.00 0.00 0.01 0.02 0.01 0.00 0.00 0.00 0.00 0.00 0.03 0.05 0.05 0.03 0.03 0.00 0.04 0.03 0.00 0.00 0.00 0.00 0.00 0.00 0.00 0.01 0.01
0.01 0.00 0.00 0.00 0.00 0.00 0.00 0.00 0.00 0.00 0.02 0.10 0.12 0.22 0.38 0.51 0.50 0.31 0.18 0.09 0.03 0.00 0.00 0.03 0.06 0.00 0.00 0.00 0.00 0.00 0.08 0.08 0.08 0.13 0.18 0.16 0.22 0.24 0.14 0.02 0.01 0.02 0.01 0.00 0.02 0.06 0.05
0.02 0.01 0.00 0.00 0.00 0.00 0.00 0.00 0.00 0.00 0.05 0.12 0.16 0.18 0.28 0.52 0.46 0.17 0.08 0.07 0.03 0.00 0.00 0.04 0.28 0.09 0.01 0.03 0.01 0.03 0.09 0.10 0.12 0.22 0.30 0.42 0.56 0.44 0.27 0.16 0.10 0.08 0.04 0.01 0.03 0.07 0.10
0.02 0.01 0.01 0.00 0.00 0.00 0.01 0.00 0.00 0.00 0.08 0.13 0.16 0.12 0.16 0.21 0.16 0.15 0.09 0.07 0.04 0.01 0.01 0.02 0.07 0.02 0.03 0.06 0.03 0.04 0.07 0.09 0.04 0.03 0.14 0.26 0.44 0.44 0.29 0.35 0.24 0.14 0.05 0.03 0.09 0.12 0.15
0.01 0.01 0.01 0.00 0.00 0.00 0.01 0.01 0.01 0.01 0.10 0.12 0.09 0.09 0.11 0.16 0.11 0.20 0.15 0.07 0.04 0.03 0.02 0.01 0.03 0.04 0.04 0.02 0.04 0.03 0.05 0.04 0.03 0.03 0.06 0.09 0.08 0.15 0.15 0.20 0.24 0.12 0.03 0.03 0.05 0.09 0.13
0.00 0.00 0.01 0.00 0.00 0.00 0.01 0.02 0.02 0.01 0.08 0.13 0.06 0.16 0.26 0.12 0.10 0.14 0.04 0.02 0.01 0.01 0.04 0.02 0.04 0.11 0.04 0.04 0.07 0.06 0.04 0.04 0.03 0.01 0.02 0.07 0.11 0.19 0.13 0.08 0.24 0.09 0.01 0.01 0.01 0.02 0.02
0.01 0.00 0.00 0.00 0.01 0.01 0.01 0.01 0.02 0.02 0.05 0.17 0.14 0.15 0.34 0.35 0.08 0.05 0.03 0.02 0.02 0.02 0.03 0.03 0.03 0.06 0.07 0.24 0.52 0.37 0.20 0.16 0.04 0.00 0.00 0.00 0.05 0.19 0.20 0.12 0.07 0.02 0.00 0.00 0.01 0.01 0.00
0.01 0.01 0.01 0.00 0.01 0.00 0.00 0.00 0.01 0.02 0.05 0.14 0.12 0.16 0.24 0.37 0.22 0.06 0.06 0.08 0.10 0.10 0.15 0.12 0.10 0.04 0.15 0.41 0.59 0.36 0.23 0.11 0.03 0.01 0.00 0.00 0.01 0.08 0.13 0.16 0.08 0.00 0.00 0.00 0.01 0.03 0.00
0.03 0.02 0.02 0.01 0.01 0.01 0.01 0.01 0.01 0.07 0.07 0.13 0.11 0.14 0.28 0.43 0.16 0.16 0.15 0.08 0.05 0.10 0.24 0.16 0.23 0.20 0.15 0.35 0.41 0.32 0.11 0.02 0.04 0.03 0.04 0.02 0.01 0.03 0.03 0.08 0.03 0.00 0.00 0.00 0.02 0.01 0.00
0.05 0.03 0.03 0.02 0.01 0.00 0.01 0.02 0.11 0.12 0.14 0.20 0.16 0.11 0.17 0.26 0.10 0.09 0.20 0.25 0.17 0.15 0.19 0.22 0.38 0.35 0.38 0.24 0.22 0.14 0.08 0.01 0.01 0.01 0.01 0.07 0.12 0.08 0.07 0.10 0.04 0.00 0.00 0.01 0.00 0.00 0.00
0.02 0.02 0.02 0.04 0.08 0.05 0.02 0.05 0.24 0.28 0.28 0.44 0.30 0.18 0.17 0.27 0.17 0.09 0.09 0.17 0.19 0.17 0.20 0.20 0.32 0.31 0.40 0.31 0.11 0.04 0.01 0.00 0.01 0.00 0.00 0.01 0.02 0.04 0.09 0.08 0.02 0.00 0.00 0.00 0.00 0.00 0.00

GFSGBSN_prec_precacc12_144.txt.gz
Total_Precipitation_Accumulation
0.34 0.23 0.18 0.15 0.07 0.06 0.04 0.03 0.01 0.00 0.00 0.00 0.00 0.00 0.00 0.00 0.00 0.00 0.00 0.00 0.00 0.00 0.00 0.00 0.00 0.00 0.00 0.00 0.00 0.00 0.00 0.00 0.00 0.00 0.00 0.00 0.00 0.00 0.00 0.00 0.00 0.00 0.00 0.00 0.00 0.00 0.00
0.49 0.47 0.46 0.45 0.34 0.24 0.14 0.06 0.01 0.01 0.02 0.07 0.11 0.11 0.09 0.08 0.05 0.02 0.00 0.00 0.00 0.00 0.00 0.00 0.00 0.00 0.00 0.00 0.00 0.00 0.00 0.00 0.00 0.00 0.00 0.00 0.00 0.00 0.00 0.00 0.00 0.00 0.00 0.00 0.00 0.00 0.00
0.61 0.56 0.55 0.51 0.40 0.32 0.30 0.25 0.24 0.28 0.45 0.55 0.43 0.32 0.23 0.13 0.07 0.03 0.01 0.00 0.00 0.00 0.00 0.00 0.00 0.00 0.00 0.00 0.00 0.00 0.00 0.00 0.00 0.00 0.00 0.00 0.00 0.00 0.00 0.00 0.00 0.00 0.00 0.00 0.00 0.00 0.00
0.67 0.62 0.50 0.47 0.46 0.43 0.42 0.38 0.39 0.53 0.69 0.77 0.70 0.47 0.27 0.15 0.08 0.04 0.01 0.00 0.00 0.00 0.00 0.00 0.00 0.00 0.00 0.00 0.00 0.00 0.00 0.00 0.00 0.00 0.00 0.00 0.00 0.00 0.00 0.00 0.00 0.00 0.00 0.00 0.00 0.00 0.00
0.20 0.32 0.34 0.32 0.32 0.34 0.39 0.41 0.38 0.33 0.33 0.41 0.37 0.26 0.17 0.10 0.05 0.01 0.00 0.00 0.00 0.00 0.00 0.00 0.00 0.00 0.00 0.00 0.00 0.00 0.00 0.00 0.00 0.00 0.00 0.00 0.00 0.00 0.00 0.00 0.00 0.00 0.00 0.00 0.00 0.00 0.00
0.08 0.15 0.20 0.15 0.15 0.16 0.18 0.23 0.25 0.25 0.20 0.20 0.22 0.19 0.14 0.09 0.06 0.03 0.02 0.01 0.00 0.00 0.00 0.00 0.00 0.00 0.00 0.00 0.00 0.00 0.00 0.00 0.00 0.00 0.00 0.00 0.00 0.00 0.00 0.00 0.00 0.00 0.00 0.00 0.00 0.00 0.00
0.05 0.07 0.12 0.09 0.07 0.10 0.20 0.21 0.06 0.06 0.08 0.10 0.14 0.21 0.26 0.23 0.17 0.10 0.05 0.03 0.02 0.01 0.00 0.00 0.00 0.00 0.00 0.00 0.00 0.00 0.00 0.00 0.00 0.00 0.00 0.00 0.00 0.00 0.00 0.00 0.00 0.00 0.00 0.00 0.00 0.00 0.00
0.04 0.05 0.05 0.05 0.06 0.08 0.10 0.18 0.26 0.07 0.04 0.04 0.03 0.04 0.07 0.08 0.07 0.06 0.05 0.07 0.05 0.03 0.01 0.00 0.00 0.00 0.00 0.00 0.00 0.00 0.00 0.00 0.00 0.00 0.00 0.00 0.00 0.00 0.00 0.00 0.00 0.00 0.00 0.00 0.00 0.00 0.00
0.02 0.02 0.03 0.02 0.01 0.01 0.03 0.05 0.13 0.24 0.08 0.04 0.03 0.02 0.04 0.04 0.03 0.02 0.01 0.02 0.01 0.00 0.00 0.00 0.00 0.00 0.00 0.00 0.00 0.00 0.00 0.00 0.00 0.00 0.00 0.00 0.00 0.00 0.00 0.00 0.00 0.00 0.00 0.00 0.00 0.00 0.00
0.00 0.00 0.01 0.01 0.00 0.00 0.01 0.00 0.01 0.10 0.16 0.07 0.05 0.03 0.03 0.04 0.02 0.00 0.01 0.00 0.00 0.00 0.02 0.00 0.00 0.00 0.00 0.00 0.00 0.00 0.00 0.00 0.00 0.00 0.00 0.00 0.00 0.00 0.00 0.00 0.00 0.00 0.00 0.00 0.00 0.00 0.00
0.00 0.00 0.00 0.00 0.00 0.00 0.00 0.00 0.00 0.06 0.18 0.13 0.12 0.06 0.02 0.01 0.01 0.01 0.00 0.00 0.00 0.01 0.12 0.01 0.00 0.00 0.00 0.00 0.00 0.00 0.00 0.00 0.00 0.00 0.00 0.00 0.00 0.00 0.00 0.00 0.00 0.00 0.00 0.00 0.00 0.00 0.00
0.00 0.00 0.00 0.00 0.00 0.00 0.00 0.00 0.00 0.01 0.10 0.34 0.36 0.16 0.05 0.02 0.00 0.00 0.00 0.00 0.02 0.08 0.08 0.00 0.00 0.00 0.00 0.00 0.00 0.00 0.00 0.00 0.00 0.00 0.00 0.00 0.00 0.00 0.00 0.00 0.00 0.00 0.00 0.00 0.00 0.00 0.00
0.00 0.00 0.00 0.00 0.00 0.00 0.00 0.00 0.00 0.00 0.00 0.06 0.32 0.45 0.20 0.02 0.00 0.01 0.01 0.02 0.13 0.11 0.01 0.00 0.00 0.00 0.00 0.00 0.00 0.00 0.00 0.00 0.00 0.00 0.00 0.00 0.00 0.00 0.00 0.00 0.00 0.00 0.00 0.00 0.00 0.00 0.00
0.00 0.00 0.00 0.00 0.00 0.00 0.00 0.00 0.00 0.00 0.00 0.00 0.04 0.42 0.50 0.12 0.05 0.02 0.11 0.16 0.15 0.01 0.00 0.00 0.00 0.00 0.00 0.00 0.00 0.00 0.00 0.00 0.00 0.00 0.00 0.00 0.00 0.00 0.00 0.00 0.00 0.00 0.00 0.02 0.00 0.00 0.00
0.00 0.00 0.00 0.00 0.00 0.00 0.00 0.00 0.00 0.00 0.00 0.00 0.01 0.29 0.63 0.41 0.29 0.19 0.47 0.51 0.05 0.00 0.00 0.00 0.00 0.00 0.00 0.00 0.00 0.00 0.00 0.00 0.00 0.00 0.00 0.00 0.00 0.00 0.00 0.00 0.00 0.00 0.00 0.01 0.01 0.03 0.03
0.00 0.00 0.00 0.00 0.00 0.00 0.00 0.00 0.00 0.00 0.00 0.00 0.00 0.09 0.31 0.25 0.50 0.72 1.03 0.54 0.01 0.00 0.00 0.00 0.00 0.00 0.00 0.00 0.00 0.00 0.00 0.00 0.00 0.00 0.00 0.00 0.00 0.00 0.00 0.00 0.00 0.00 0.00 0.00 0.06 0.19 0.05
0.00 0.00 0.00 0.00 0.00 0.00 0.00 0.00 0.00 0.00 0.00 0.00 0.00 0.01 0.06 0.06 0.57 1.53 1.41 0.40 0.01 0.00 0.00 0.00 0.00 0.00 0.00 0.00 0.00 0.00 0.01 0.00 0.00 0.00 0.00 0.00 0.00 0.00 0.00 0.00 0.00 0.00 0.00 0.00 0.01 0.03 0.05
0.00 0.00 0.00 0.00 0.00 0.00 0.00 0.00 0.00 0.00 0.01 0.01 0.00 0.00 0.01 0.12 0.59 1.14 0.66 0.12 0.00 0.00 0.00 0.00 0.00 0.00 0.00 0.00 0.00 0.00 0.02 0.02 0.00 0.00 0.00 0.00 0.02 0.01 0.00 0.00 0.00 0.00 0.00 0.00 0.03 0.06 0.02
0.00 0.00 0.00 0.00 0.00 0.00 0.00 0.00 0.00 0.00 0.00 0.02 0.00 0.00 0.01 0.09 0.33 0.45 0.25 0.04 0.00 0.00 0.00 0.00 0.01 0.00 0.00 0.00 0.00 0.00 0.02 0.03 0.05 0.03 0.03 0.01 0.10 0.12 0.02 0.00 0.00 0.00 0.00 0.00 0.00 0.04 0.10
0.01 0.00 0.00 0.00 0.00 0.00 0.00 0.00 0.00 0.00 0.00 0.02 0.00 0.01 0.00 0.03 0.10 0.20 0.17 0.08 0.03 0.00 0.00 0.02 0.05 0.00 0.00 0.00 0.00 0.00 0.05 0.06 0.08 0.13 0.18 0.16 0.23 0.28 0.21 0.06 0.04 0.03 0.00 0.00 0.02 0.07 0.07
0.02 0.01 0.00 0.00 0.00 0.00 0.00 0.00 0.00 0.00 0.01 0.02 0.00 0.00 0.00 0.02 0.07 0.09 0.08 0.07 0.02 0.00 0.00 0.03 0.24 0.08 0.01 0.04 0.01 0.03 0.08 0.09 0.12 0.22 0.30 0.42 0.56 0.47 0.32 0.21 0.14 0.13 0.06 0.01 0.03 0.07 0.13
0.02 0.01 0.01 0.00 0.00 0.00 0.00 0.00 0.00 0.00 0.03 0.03 0.01 0.01 0.02 0.01 0.02 0.11 0.08 0.07 0.04 0.01 0.01 0.02 0.06 0.02 0.03 0.04 0.01 0.03 0.07 0.08 0.04 0.04 0.14 0.26 0.44 0.45 0.31 0.36 0.27 0.14 0.03 0.03 0.10 0.16 0.24
0.01 0.01 0.01 0.00 0.00 0.00 0.00 0.01 0.01 0.01 0.04 0.01 0.00 0.01 0.03 0.03 0.03 0.10 0.11 0.06 0.04 0.02 0.02 0.01 0.03 0.04 0.04 0.01 0.03 0.02 0.03 0.02 0.03 0.03 0.06 0.10 0.09 0.16 0.14 0.20 0.25 0.11 0.03 0.04 0.06 0.13 0.23
0.01 0.00 0.00 0.00 0.00 0.00 0.00 0.01 0.01 0.01 0.03 0.02 0.00 0.02 0.04 0.02 0.01 0.04 0.02 0.01 0.01 0.01 0.04 0.02 0.04 0.11 0.04 0.04 0.07 0.06 0.04 0.03 0.02 0.01 0.02 0.05 0.07 0.14 0.10 0.07 0.18 0.06 0.01 0.01 0.01 0.03 0.03
0.02 0.00 0.00 0.00 0.00 0.00 0.00 0.01 0.01 0.02 0.04 0.04 0.02 0.04 0.07 0.08 0.02 0.02 0.01 0.01 0.01 0.01 0.02 0.01 0.02 0.06 0.05 0.18 0.48 0.35 0.16 0.12 0.05 0.01 0.00 0.00 0.04 0.12 0.14 0.10 0.05 0.02 0.00 0.00 0.00 0.01 0.00
0.03 0.01 0.00 0.00 0.00 0.00 0.00 0.00 0.00 0.01 0.04 0.08 0.05 0.06 0.11 0.19 0.06 0.04 0.04 0.04 0.06 0.05 0.11 0.10 0.08 0.02 0.12 0.36 0.48 0.32 0.23 0.15 0.08 0.03 0.01 0.02 0.04 0.11 0.09 0.12 0.07 0.00 0.00 0.00 0.00 0.01 0.00
0.04 0.02 0.01 0.01 0.00 0.00 0.00 0.00 0.01 0.01 0.01 0.04 0.03 0.09 0.16 0.35 0.11 0.11 0.11 0.05 0.03 0.07 0.16 0.13 0.19 0.16 0.12 0.33 0.38 0.30 0.13 0.05 0.10 0.09 0.05 0.08 0.12 0.13 0.07 0.08 0.03 0.00 0.00 0.00 0.00 0.01 0.00
0.07 0.05 0.03 0.02 0.01 0.00 0.00 0.01 0.01 0.01 0.01 0.05 0.04 0.05 0.10 0.21 0.08 0.08 0.19 0.23 0.15 0.10 0.14 0.19 0.34 0.33 0.34 0.25 0.21 0.15 0.12 0.06 0.04 0.01 0.01 0.05 0.10 0.09 0.07 0.11 0.03 0.00 0.00 0.00 0.00 0.00 0.00
0.07 0.07 0.05 0.04 0.03 0.01 0.01 0.01 0.02 0.05 0.05 0.12 0.07 0.03 0.09 0.23 0.15 0.08 0.09 0.16 0.18 0.16 0.19 0.19 0.31 0.31 0.41 0.35 0.16 0.08 0.04 0.02 0.03 0.06 0.02 0.01 0.00 0.02 0.05 0.04 0.00 0.00 0.00 0.00 0.00 0.00 0.00

GFSGBSN_prec_precacc12_147.txt.gz
Total_Precipitation_Accumulation
0.18 0.14 0.10 0.10 0.04 0.01 0.00 0.00 0.01 0.00 0.00 0.00 0.00 0.00 0.00 0.00 0.00 0.00 0.00 0.00 0.00 0.00 0.00 0.00 0.00 0.00 0.00 0.00 0.00 0.00 0.00 0.00 0.00 0.00 0.00 0.00 0.00 0.00 0.00 0.00 0.00 0.00 0.00 0.00 0.00 0.00 0.00
0.43 0.31 0.26 0.26 0.22 0.15 0.08 0.02 0.00 0.00 0.00 0.03 0.07 0.08 0.08 0.07 0.04 0.02 0.00 0.00 0.00 0.00 0.00 0.00 0.00 0.00 0.00 0.00 0.00 0.00 0.00 0.00 0.00 0.00 0.00 0.00 0.00 0.00 0.00 0.00 0.00 0.00 0.00 0.00 0.00 0.00 0.00
0.85 0.77 0.57 0.40 0.25 0.17 0.17 0.16 0.12 0.12 0.24 0.31 0.20 0.21 0.17 0.10 0.07 0.03 0.01 0.00 0.00 0.00 0.00 0.00 0.00 0.00 0.00 0.00 0.00 0.00 0.00 0.00 0.00 0.00 0.00 0.00 0.00 0.00 0.00 0.00 0.00 0.00 0.00 0.00 0.00 0.00 0.00
0.80 0.91 0.80 0.64 0.50 0.40 0.34 0.29 0.23 0.22 0.36 0.47 0.46 0.33 0.20 0.12 0.08 0.06 0.04 0.01 0.00 0.00 0.00 0.00 0.00 0.00 0.00 0.00 0.00 0.00 0.00 0.00 0.00 0.00 0.00 0.00 0.00 0.00 0.00 0.00 0.00 0.00 0.00 0.00 0.00 0.00 0.00
0.20 0.39 0.62 0.69 0.64 0.55 0.44 0.36 0.30 0.24 0.22 0.30 0.32 0.30 0.27 0.14 0.06 0.04 0.03 0.01 0.00 0.00 0.00 0.00 0.00 0.00 0.00 0.00 0.00 0.00 0.00 0.00 0.00 0.00 0.00 0.00 0.00 0.00 0.00 0.00 0.00 0.00 0.00 0.00 0.00 0.00 0.00
0.10 0.16 0.25 0.25 0.30 0.31 0.33 0.31 0.24 0.21 0.17 0.17 0.20 0.20 0.20 0.15 0.06 0.03 0.02 0.01 0.00 0.00 0.00 0.00 0.00 0.00 0.00 0.00 0.00 0.00 0.00 0.00 0.00 0.00 0.00 0.00 0.00 0.00 0.00 0.00 0.00 0.00 0.00 0.00 0.00 0.00 0.00
0.05 0.09 0.16 0.13 0.10 0.10 0.14 0.21 0.11 0.12 0.15 0.15 0.15 0.15 0.18 0.18 0.15 0.09 0.05 0.03 0.02 0.01 0.00 0.00 0.00 0.00 0.00 0.00 0.00 0.00 0.00 0.00 0.00 0.00 0.00 0.00 0.00 0.00 0.00 0.00 0.00 0.00 0.00 0.00 0.00 0.00 0.00
0.06 0.06 0.07 0.08 0.09 0.11 0.11 0.16 0.25 0.12 0.10 0.11 0.13 0.11 0.11 0.08 0.06 0.05 0.05 0.06 0.05 0.03 0.01 0.00 0.00 0.00 0.00 0.00 0.00 0.00 0.00 0.00 0.00 0.00 0.00 0.00 0.00 0.00 0.00 0.00 0.00 0.00 0.00 0.00 0.00 0.00 0.00
0.04 0.04 0.04 0.03 0.02 0.02 0.05 0.11 0.17 0.26 0.14 0.11 0.12 0.12 0.12 0.13 0.10 0.05 0.02 0.02 0.01 0.00 0.00 0.00 0.00 0.00 0.00 0.00 0.00 0.00 0.00 0.00 0.00 0.00 0.00 0.00 0.00 0.00 0.00 0.00 0.00 0.00 0.00 0.00 0.00 0.00 0.00
0.01 0.01 0.01 0.01 0.01 0.00 0.01 0.01 0.04 0.12 0.16 0.09 0.10 0.06 0.03 0.02 0.01 0.02 0.02 0.01 0.01 0.00 0.01 0.00 0.00 0.00 0.00 0.00 0.00 0.00 0.00 0.00 0.00 0.00 0.00 0.00 0.00 0.00 0.00 0.00 0.00 0.00 0.00 0.00 0.00 0.00 0.00
0.01 0.00 0.00 0.00 0.00 0.00 0.00 0.00 0.00 0.01 0.10 0.09 0.11 0.06 0.00 0.00 0.00 0.00 0.00 0.00 0.00 0.00 0.04 0.00 0.00 0.00 0.00 0.00 0.00 0.00 0.00 0.00 0.00 0.00 0.00 0.00 0.00 0.00 0.00 0.00 0.00 0.00 0.00 0.00 0.00 0.00 0.00
0.00 0.00 0.00 0.00 0.00 0.00 0.00 0.00 0.00 0.00 0.01 0.17 0.32 0.15 0.04 0.01 0.00 0.00 0.00 0.00 0.01 0.02 0.01 0.00 0.00 0.00 0.00 0.00 0.00 0.00 0.00 0.00 0.00 0.00 0.00 0.00 0.00 0.00 0.00 0.00 0.00 0.00 0.00 0.00 0.00 0.00 0.00
0.00 0.00 0.00 0.00 0.00 0.00 0.00 0.00 0.00 0.00 0.00 0.03 0.32 0.38 0.15 0.01 0.00 0.00 0.00 0.00 0.06 0.03 0.00 0.00 0.00 0.00 0.00 0.00 0.00 0.00 0.00 0.00 0.00 0.00 0.00 0.00 0.00 0.00 0.00 0.00 0.00 0.00 0.00 0.00 0.00 0.00 0.00
0.00 0.00 0.00 0.00 0.00 0.00 0.00 0.00 0.00 0.00 0.00 0.00 0.05 0.36 0.35 0.08 0.05 0.00 0.03 0.07 0.06 0.00 0.00 0.00 0.00 0.00 0.00 0.00 0.00 0.00 0.00 0.00 0.00 0.00 0.00 0.00 0.00 0.00 0.00 0.00 0.00 0.00 0.00 0.02 0.01 0.00 0.00
0.00 0.00 0.00 0.00 0.00 0.00 0.00 0.00 0.00 0.00 0.00 0.00 0.02 0.23 0.39 0.33 0.29 0.16 0.16 0.26 0.02 0.00 0.00 0.00 0.00 0.00 0.00 0.00 0.00 0.00 0.00 0.00 0.00 0.00 0.00 0.00 0.00 0.00 0.00 0.00 0.00 0.00 0.00 0.01 0.06 0.14 0.18
0.00 0.00 0.00 0.00 0.00 0.00 0.00 0.00 0.00 0.00 0.00 0.00 0.01 0.10 0.16 0.33 0.56 0.62 0.76 0.34 0.01 0.00 0.00 0.00 0.00 0.00 0.00 0.00 0.00 0.00 0.00 0.00 0.00 0.00 0.00 0.00 0.00 0.00 0.00 0.00 0.00 0.00 0.00 0.00 0.10 0.27 0.11
0.00 0.00 0.00 0.00 0.00 0.00 0.00 0.00 0.00 0.00 0.00 0.00 0.00 0.03 0.08 0.19 0.58 1.28 1.08 0.27 0.00 0.00 0.00 0.00 0.00 0.00 0.00 0.00 0.00 0.00 0.01 0.00 0.00 0.00 0.00 0.00 0.00 0.00 0.00 0.00 0.00 0.00 0.00 0.00 0.02 0.09 0.12
0.00 0.00 0.00 0.00 0.00 0.00 0.00 0.00 0.00 0.00 0.00 0.00 0.00 0.00 0.02 0.16 0.27 0.67 0.46 0.07 0.00 0.00 0.00 0.00 0.00 0.00 0.00 0.00 0.00 0.00 0.01 0.02 0.00 0.00 0.00 0.00 0.04 0.02 0.00 0.00 0.00 0.00 0.00 0.00 0.05 0.10 0.07
0.00 0.00 0.00 0.00 0.00 0.00 0.00 0.00 0.00 0.00 0.00 0.00 0.00 0.00 0.00 0.12 0.08 0.08 0.11 0.04 0.00 0.00 0.00 0.00 0.00 0.00 0.00 0.00 0.00 0.00 0.02 0.02 0.05 0.02 0.03 0.01 0.10 0.13 0.02 0.00 0.00 0.00 0.00 0.00 0.01 0.08 0.16
0.01 0.00 0.00 0.00 0.00 0.00 0.00 0.00 0.00 0.00 0.00 0.00 0.00 0.00 0.00 0.02 0.01 0.00 0.00 0.03 0.03 0.00 0.00 0.01 0.04 0.00 0.00 0.00 0.00 0.00 0.00 0.01 0.03 0.09 0.17 0.16 0.23 0.29 0.21 0.06 0.04 0.02 0.00 0.01 0.05 0.14 0.14
0.02 0.01 0.01 0.00 0.00 0.00 0.00 0.00 0.00 0.00 0.00 0.00 0.00 0.00 0.00 0.00 0.00 0.00 0.00 0.00 0.00 0.00 0.00 0.00 0.12 0.08 0.01 0.03 0.01 0.02 0.01 0.00 0.02 0.09 0.16 0.30 0.47 0.44 0.32 0.21 0.14 0.12 0.05 0.01 0.03 0.06 0.14
0.02 0.01 0.01 0.00 0.00 0.00 0.00 0.00 0.00 0.00 0.01 0.00 0.00 0.00 0.00 0.00 0.00 0.00 0.01 0.02 0.00 0.00 0.00 0.01 0.05 0.01 0.02 0.04 0.02 0.03 0.04 0.03 0.03 0.04 0.09 0.22 0.37 0.39 0.30 0.36 0.27 0.13 0.03 0.03 0.10 0.15 0.23
0.01 0.01 0.01 0.00 0.00 0.00 0.00 0.01 0.00 0.00 0.02 0.00 0.00 0.00 0.00 0.00 0.00 0.02 0.01 0.00 0.00 0.01 0.01 0.00 0.02 0.03 0.03 0.01 0.02 0.02 0.03 0.02 0.03 0.03 0.06 0.12 0.12 0.19 0.16 0.20 0.26 0.13 0.02 0.04 0.06 0.13 0.23
0.01 0.00 0.00 0.00 0.00 0.00 0.00 0.01 0.01 0.01 0.02 0.00 0.00 0.00 0.00 0.00 0.00 0.00 0.00 0.00 0.00 0.00 0.02 0.01 0.03 0.09 0.04 0.03 0.07 0.06 0.04 0.03 0.02 0.01 0.02 0.06 0.09 0.18 0.12 0.09 0.22 0.05 0.01 0.01 0.01 0.03 0.03
0.02 0.01 0.00 0.00 0.00 0.00 0.00 0.00 0.01 0.02 0.03 0.01 0.00 0.01 0.01 0.00 0.00 0.00 0.00 0.00 0.00 0.00 0.00 0.00 0.01 0.05 0.04 0.17 0.47 0.35 0.16 0.12 0.05 0.01 0.00 0.01 0.06 0.17 0.15 0.08 0.03 0.00 0.00 0.00 0.00 0.00 0.00
0.04 0.01 0.01 0.01 0.00 0.00 0.00 0.00 0.00 0.01 0.04 0.04 0.02 0.03 0.03 0.04 0.01 0.00 0.01 0.01 0.02 0.01 0.01 0.01 0.03 0.02 0.12 0.35 0.47 0.30 0.21 0.15 0.07 0.03 0.01 0.02 0.07 0.19 0.14 0.09 0.02 0.00 0.00 0.00 0.00 0.00 0.00
0.05 0.03 0.02 0.01 0.00 0.00 0.00 0.00 0.00 0.00 0.02 0.02 0.01 0.05 0.09 0.13 0.01 0.00 0.01 0.00 0.00 0.02 0.07 0.05 0.11 0.14 0.10 0.32 0.37 0.29 0.13 0.05 0.10 0.09 0.06 0.13 0.22 0.25 0.11 0.09 0.01 0.00 0.00 0.00 0.00 0.00 0.00
0.08 0.06 0.04 0.03 0.01 0.00 0.00 0.00 0.01 0.01 0.01 0.03 0.01 0.01 0.05 0.08 0.01 0.00 0.01 0.06 0.09 0.04 0.05 0.07 0.19 0.28 0.33 0.24 0.21 0.15 0.12 0.06 0.04 0.01 0.01 0.04 0.12 0.19 0.20 0.26 0.06 0.00 0.00 0.00 0.00 0.00 0.00
0.09 0.10 0.07 0.06 0.04 0.02 0.01 0.01 0.01 0.02 0.03 0.07 0.03 0.00 0.04 0.09 0.02 0.00 0.01 0.05 0.13 0.11 0.10 0.13 0.26 0.28 0.40 0.35 0.17 0.09 0.05 0.03 0.04 0.07 0.05 0.05 0.01 0.01 0.02 0.05 0.01 0.00 0.00 0.00 0.00 0.00 0.00

GFSGBSN_prec_precacc12_150.txt.gz
Total_Precipitation_Accumulation
0.04 0.01 0.01 0.02 0.02 0.01 0.00 0.00 0.00 0.00 0.00 0.00 0.00 0.00 0.00 0.00 0.00 0.00 0.00 0.00 0.00 0.00 0.00 0.00 0.00 0.00 0.00 0.00 0.00 0.00 0.00 0.00 0.00 0.00 0.00 0.00 0.00 0.00 0.00 0.00 0.00 0.00 0.00 0.00 0.00 0.00 0.00
0.32 0.18 0.11 0.09 0.08 0.07 0.05 0.01 0.00 0.00 0.00 0.01 0.01 0.00 0.01 0.02 0.02 0.01 0.00 0.00 0.00 0.00 0.00 0.00 0.00 0.00 0.00 0.00 0.00 0.00 0.00 0.00 0.00 0.00 0.00 0.00 0.00 0.00 0.00 0.00 0.00 0.00 0.00 0.00 0.00 0.00 0.00
0.92 0.81 0.66 0.42 0.21 0.10 0.10 0.11 0.10 0.10 0.12 0.13 0.08 0.03 0.02 0.01 0.02 0.02 0.01 0.00 0.00 0.00 0.00 0.00 0.00 0.00 0.00 0.00 0.00 0.00 0.00 0.00 0.00 0.00 0.00 0.00 0.00 0.00 0.00 0.00 0.00 0.00 0.00 0.00 0.00 0.00 0.00
0.69 0.88 0.87 0.83 0.65 0.52 0.36 0.26 0.20 0.19 0.24 0.28 0.29 0.19 0.10 0.06 0.03 0.04 0.04 0.03 0.01 0.00 0.00 0.00 0.00 0.00 0.00 0.00 0.00 0.00 0.00 0.00 0.00 0.00 0.00 0.00 0.00 0.00 0.00 0.00 0.00 0.00 0.00 0.00 0.00 0.00 0.00
0.20 0.39 0.68 0.81 0.79 0.72 0.60 0.46 0.32 0.24 0.21 0.23 0.22 0.21 0.20 0.11 0.05 0.04 0.03 0.03 0.02 0.01 0.00 0.00 0.00 0.00 0.00 0.00 0.00 0.00 0.00 0.00 0.00 0.00 0.00 0.00 0.00 0.00 0.00 0.00 0.00 0.00 0.00 0.00 0.00 0.00 0.00
0.10 0.18 0.27 0.30 0.37 0.40 0.41 0.42 0.34 0.26 0.19 0.16 0.17 0.13 0.12 0.12 0.03 0.01 0.01 0.02 0.01 0.00 0.00 0.00 0.00 0.00 0.00 0.00 0.00 0.00 0.00 0.00 0.00 0.00 0.00 0.00 0.00 0.00 0.00 0.00 0.00 0.00 0.00 0.00 0.00 0.00 0.00
0.05 0.09 0.17 0.14 0.12 0.12 0.16 0.23 0.17 0.20 0.21 0.20 0.16 0.11 0.08 0.09 0.08 0.04 0.02 0.01 0.01 0.01 0.00 0.00 0.00 0.00 0.00 0.00 0.00 0.00 0.00 0.00 0.00 0.00 0.00 0.00 0.00 0.00 0.00 0.00 0.00 0.00 0.00 0.00 0.00 0.00 0.00
0.09 0.06 0.08 0.08 0.10 0.11 0.11 0.16 0.24 0.20 0.15 0.15 0.18 0.19 0.17 0.13 0.07 0.02 0.02 0.01 0.02 0.03 0.01 0.00 0.00 0.00 0.00 0.00 0.00 0.00 0.00 0.00 0.00 0.00 0.00 0.00 0.00 0.00 0.00 0.00 0.00 0.00 0.00 0.00 0.00 0.00 0.00
0.07 0.07 0.06 0.04 0.03 0.03 0.06 0.11 0.18 0.27 0.15 0.13 0.16 0.20 0.24 0.27 0.28 0.20 0.10 0.03 0.00 0.00 0.00 0.00 0.00 0.00 0.00 0.00 0.00 0.00 0.00 0.00 0.00 0.00 0.00 0.00 0.00 0.00 0.00 0.00 0.00 0.00 0.00 0.00 0.00 0.00 0.00
0.11 0.04 0.06 0.04 0.01 0.01 0.02 0.02 0.06 0.15 0.18 0.07 0.08 0.12 0.13 0.15 0.17 0.17 0.15 0.05 0.01 0.00 0.04 0.00 0.00 0.00 0.00 0.00 0.00 0.00 0.00 0.00 0.00 0.00 0.00 0.00 0.00 0.00 0.00 0.00 0.00 0.00 0.00 0.00 0.00 0.00 0.00
0.08 0.09 0.08 0.03 0.02 0.01 0.00 0.01 0.02 0.02 0.11 0.07 0.06 0.05 0.01 0.02 0.01 0.02 0.02 0.01 0.00 0.01 0.10 0.00 0.00 0.00 0.00 0.00 0.00 0.00 0.00 0.00 0.00 0.00 0.00 0.00 0.00 0.00 0.00 0.00 0.00 0.00 0.00 0.00 0.00 0.00 0.00
0.05 0.06 0.09 0.04 0.01 0.01 0.00 0.00 0.00 0.01 0.03 0.09 0.10 0.09 0.03 0.00 0.00 0.00 0.00 0.00 0.00 0.00 0.01 0.00 0.00 0.00 0.00 0.00 0.00 0.00 0.00 0.00 0.00 0.00 0.00 0.00 0.00 0.00 0.00 0.00 0.00 0.00 0.00 0.00 0.00 0.00 0.00
0.06 0.04 0.02 0.01 0.02 0.02 0.00 0.00 0.00 0.00 0.00 0.05 0.17 0.21 0.07 0.00 0.00 0.00 0.00 0.00 0.01 0.00 0.00 0.00 0.00 0.00 0.00 0.00 0.00 0.00 0.00 0.00 0.00 0.00 0.00 0.00 0.00 0.00 0.00 0.00 0.00 0.00 0.00 0.00 0.00 0.00 0.00
0.04 0.02 0.00 0.00 0.00 0.00 0.00 0.00 0.00 0.00 0.00 0.01 0.13 0.40 0.30 0.06 0.04 0.00 0.00 0.03 0.02 0.00 0.00 0.00 0.00 0.00 0.00 0.00 0.00 0.00 0.00 0.00 0.00 0.00 0.00 0.00 0.00 0.00 0.00 0.00 0.00 0.00 0.00 0.02 0.02 0.01 0.01
0.01 0.00 0.00 0.00 0.00 0.00 0.00 0.00 0.00 0.00 0.00 0.01 0.11 0.44 0.42 0.30 0.21 0.06 0.04 0.11 0.00 0.00 0.00 0.00 0.00 0.00 0.00 0.00 0.00 0.00 0.00 0.00 0.00 0.00 0.00 0.00 0.00 0.00 0.00 0.00 0.00 0.00 0.00 0.01 0.11 0.17 0.23
0.01 0.01 0.00 0.00 0.00 0.00 0.00 0.00 0.00 0.00 0.00 0.00 0.04 0.23 0.25 0.34 0.47 0.42 0.46 0.15 0.00 0.00 0.00 0.00 0.00 0.00 0.00 0.00 0.00 0.00 0.00 0.00 0.00 0.00 0.00 0.00 0.00 0.00 0.00 0.00 0.00 0.00 0.00 0.01 0.14 0.31 0.13
0.02 0.00 0.00 0.00 0.00 0.00 0.00 0.00 0.00 0.00 0.00 0.00 0.01 0.06 0.14 0.25 0.57 0.92 0.73 0.15 0.00 0.00 0.00 0.00 0.00 0.00 0.00 0.00 0.00 0.00 0.00 0.00 0.00 0.00 0.00 0.00 0.00 0.00 0.00 0.00 0.00 0.00 0.00 0.00 0.04 0.13 0.16
0.01 0.00 0.00 0.00 0.00 0.00 0.00 0.00 0.00 0.00 0.00 0.00 0.00 0.01 0.05 0.26 0.39 0.61 0.34 0.06 0.00 0.00 0.00 0.00 0.00 0.00 0.00 0.00 0.00 0.00 0.00 0.01 0.00 0.00 0.00 0.00 0.04 0.02 0.00 0.00 0.00 0.00 0.00 0.00 0.06 0.13 0.11
0.00 0.00 0.00 0.00 0.00 0.00 0.00 0.00 0.00 0.00 0.00 0.00 0.00 0.00 0.05 0.18 0.17 0.15 0.13 0.03 0.01 0.00 0.00 0.00 0.00 0.00 0.00 0.00 0.00 0.00 0.01 0.01 0.00 0.00 0.01 0.01 0.10 0.12 0.02 0.00 0.00 0.00 0.00 0.00 0.01 0.10 0.19
0.01 0.00 0.01 0.00 0.00 0.00 0.00 0.00 0.00 0.00 0.00 0.00 0.00 0.00 0.03 0.11 0.08 0.01 0.02 0.01 0.01 0.00 0.00 0.00 0.02 0.00 0.00 0.00 0.00 0.00 0.00 0.01 0.01 0.01 0.03 0.09 0.20 0.28 0.21 0.06 0.04 0.02 0.00 0.01 0.05 0.13 0.14
0.01 0.01 0.01 0.00 0.00 0.00 0.00 0.00 0.00 0.00 0.00 0.00 0.00 0.00 0.00 0.01 0.02 0.01 0.02 0.01 0.00 0.00 0.00 0.00 0.01 0.03 0.00 0.02 0.00 0.00 0.00 0.00 0.01 0.04 0.05 0.08 0.21 0.26 0.27 0.19 0.13 0.11 0.05 0.01 0.03 0.05 0.13
0.01 0.01 0.00 0.00 0.00 0.00 0.00 0.00 0.00 0.00 0.01 0.00 0.00 0.00 0.00 0.00 0.00 0.00 0.02 0.01 0.00 0.00 0.00 0.00 0.00 0.00 0.01 0.03 0.01 0.01 0.01 0.02 0.02 0.03 0.06 0.09 0.16 0.15 0.13 0.18 0.17 0.10 0.01 0.02 0.05 0.12 0.20
0.00 0.00 0.01 0.00 0.00 0.00 0.00 0.00 0.00 0.00 0.01 0.00 0.00 0.00 0.00 0.00 0.00 0.00 0.00 0.00 0.00 0.00 0.00 0.00 0.00 0.01 0.00 0.00 0.00 0.00 0.01 0.01 0.02 0.02 0.06 0.10 0.10 0.14 0.10 0.08 0.15 0.09 0.01 0.03 0.04 0.11 0.21
0.01 0.00 0.00 0.00 0.00 0.00 0.00 0.00 0.00 0.01 0.01 0.00 0.00 0.00 0.00 0.00 0.00 0.00 0.00 0.00 0.00 0.00 0.00 0.00 0.00 0.04 0.01 0.02 0.03 0.04 0.02 0.02 0.02 0.01 0.01 0.05 0.09 0.19 0.12 0.09 0.18 0.02 0.00 0.01 0.01 0.02 0.03
0.03 0.01 0.00 0.00 0.00 0.00 0.00 0.00 0.01 0.02 0.02 0.00 0.00 0.00 0.00 0.00 0.00 0.00 0.00 0.00 0.00 0.00 0.00 0.00 0.00 0.00 0.01 0.08 0.29 0.28 0.15 0.12 0.05 0.01 0.00 0.01 0.06 0.18 0.16 0.08 0.03 0.00 0.00 0.00 0.00 0.00 0.00
0.04 0.02 0.01 0.01 0.00 0.00 0.00 0.00 0.00 0.01 0.03 0.02 0.01 0.00 0.01 0.01 0.00 0.00 0.00 0.00 0.00 0.00 0.00 0.00 0.00 0.00 0.01 0.13 0.25 0.25 0.21 0.15 0.07 0.03 0.01 0.03 0.08 0.22 0.14 0.10 0.02 0.00 0.00 0.00 0.00 0.00 0.00
0.05 0.05 0.03 0.02 0.00 0.00 0.00 0.00 0.00 0.00 0.02 0.02 0.00 0.01 0.03 0.07 0.01 0.00 0.00 0.00 0.00 0.00 0.00 0.00 0.00 0.01 0.04 0.14 0.30 0.24 0.12 0.05 0.10 0.09 0.06 0.14 0.26 0.33 0.14 0.11 0.01 0.00 0.00 0.00 0.01 0.00 0.00
0.08 0.07 0.06 0.04 0.02 0.00 0.00 0.00 0.00 0.00 0.00 0.01 0.01 0.00 0.03 0.04 0.00 0.00 0.00 0.00 0.00 0.00 0.00 0.00 0.05 0.04 0.09 0.18 0.17 0.14 0.12 0.06 0.04 0.01 0.01 0.04 0.12 0.21 0.27 0.37 0.14 0.01 0.01 0.01 0.00 0.00 0.00
0.11 0.12 0.08 0.07 0.05 0.02 0.01 0.01 0.01 0.01 0.02 0.03 0.01 0.00 0.02 0.06 0.02 0.00 0.00 0.00 0.00 0.00 0.00 0.02 0.14 0.18 0.24 0.32 0.17 0.09 0.05 0.03 0.04 0.07 0.05 0.05 0.01 0.01 0.01 0.04 0.02 0.01 0.01 0.00 0.00 0.00 0.00